DW7501 Weather Reports


time (UTC)temp
C
wind
direction
speed
KPH
gust
KPH
rain 1hr
cm
rain 24hr
cm
rain mn
cm
humidity
%
barometer
mb
20191016225014 8 6 11.3 33.8 0.00 0.71 0.25 68 1007.0
20191016224914 8 5 11.3 33.8 0.00 0.71 0.25 69 1006.9
20191016224813 8 6 11.3 33.8 0.00 0.71 0.25 69 1006.9
20191016224714 8 8 12.9 33.8 0.00 0.71 0.25 69 1006.9
20191016224614 8 7 12.9 33.8 0.00 0.71 0.25 69 1006.8
20191016224514 8 9 11.3 37.0 0.00 0.71 0.25 69 1007.0
20191016224414 8 10 11.3 43.5 0.00 0.71 0.25 69 1006.9
20191016224314 8 9 12.9 43.5 0.00 0.71 0.25 69 1006.9
20191016224214 8 9 12.9 43.5 0.00 0.71 0.25 69 1006.9
20191016224114 8 9 12.9 43.5 0.00 0.71 0.25 69 1006.9
20191016224014 8 8 12.9 43.5 0.00 0.71 0.25 69 1006.9
20191016223914 8 9 12.9 43.5 0.00 0.71 0.25 69 1006.9
20191016223814 8 8 12.9 43.5 0.00 0.71 0.25 69 1006.8
20191016223715 8 6 12.9 43.5 0.00 0.71 0.25 70 1006.8
20191016223614 8 7 12.9 43.5 0.00 0.71 0.25 69 1006.8
20191016223514 8 5 12.9 43.5 0.00 0.71 0.25 70 1006.8
20191016223414 8 5 12.9 35.4 0.00 0.71 0.25 70 1006.8
20191016223314 8 6 12.9 35.4 0.00 0.71 0.25 70 1006.8
20191016223214 8 8 12.9 35.4 0.00 0.71 0.25 71 1006.8
20191016223114 8 8 11.3 35.4 0.00 0.71 0.25 72 1006.8
20191016223015 8 10 11.3 35.4 0.00 0.71 0.25 72 1006.8
20191016222914 8 8 9.7 35.4 0.00 0.74 0.25 72 1006.8
20191016222815 8 8 9.7 35.4 0.00 0.74 0.25 73 1006.6
20191016222714 8 8 9.7 35.4 0.00 0.74 0.25 74 1006.7
20191016222614 7 8 9.7 30.6 0.00 0.74 0.25 74 1006.7
20191016222514 7 8 9.7 30.6 0.00 0.74 0.25 75 1006.7
20191016222414 7 5 9.7 30.6 0.00 0.76 0.25 75 1006.7
20191016222314 7 4 11.3 30.6 0.00 0.76 0.25 75 1006.6
20191016222213 7 3 11.3 30.6 0.00 0.76 0.25 74 1006.7
20191016222114 8 2 11.3 30.6 0.00 0.76 0.25 74 1006.6
20191016222014 8 1 11.3 30.6 0.00 0.76 0.25 73 1006.6
20191016221914 8 2 12.9 30.6 0.00 0.76 0.25 73 1006.7
20191016221814 8 3 11.3 29.0 0.00 0.76 0.25 73 1006.7
20191016221714 8 3 12.9 29.0 0.00 0.76 0.25 73 1006.7
20191016221613 8 2 11.3 29.0 0.00 0.76 0.25 74 1006.6
20191016221514 8 3 12.9 30.6 0.00 0.76 0.25 74 1006.5
20191016221414 8 2 12.9 30.6 0.00 0.76 0.25 74 1006.6
20191016221314 8 3 12.9 33.8 0.00 0.76 0.25 74 1006.5
20191016221214 8 4 12.9 33.8 0.00 0.76 0.25 74 1006.4
20191016221114 8 5 12.9 33.8 0.00 0.76 0.25 74 1006.5
20191016221015 8 5 14.5 33.8 0.00 0.76 0.25 74 1006.4
20191016220914 8 6 14.5 33.8 0.00 0.76 0.25 73 1006.4
20191016220814 8 5 14.5 33.8 0.00 0.76 0.25 73 1006.5
20191016220713 8 5 14.5 33.8 0.00 0.79 0.25 73 1006.5
20191016220614 8 7 14.5 33.8 0.00 0.79 0.25 72 1006.4
20191016220514 8 7 12.9 33.8 0.00 0.79 0.25 72 1006.4
20191016220413 8 11 12.9 33.8 0.00 0.79 0.25 73 1006.4
20191016220314 8 8 12.9 33.8 0.00 0.79 0.25 73 1006.4
20191016220214 8 8 12.9 33.8 0.00 0.81 0.25 73 1006.4
20191016220113 8 8 12.9 33.8 0.00 0.81 0.25 74 1006.4
20191016220015 8 7 12.9 33.8 0.00 0.81 0.25 74 1006.3
20191016215913 8 7 11.3 33.8 0.00 0.81 0.25 74 1006.3
20191016215814 8 9 11.3 33.8 0.00 0.84 0.25 75 1006.4
20191016215714 8 9 11.3 33.8 0.00 0.84 0.25 76 1006.3
20191016215614 8 7 11.3 33.8 0.00 0.84 0.25 75 1006.3
20191016215514 8 6 12.9 33.8 0.00 0.84 0.25 75 1006.3
20191016215414 8 4 12.9 33.8 0.00 0.84 0.25 75 1006.4
20191016215314 8 6 12.9 33.8 0.00 0.84 0.25 75 1006.3
20191016215214 8 5 12.9 38.6 0.00 0.86 0.25 75 1006.2
20191016215114 8 5 12.9 45.1 0.00 0.86 0.25 75 1006.2
20191016215014 8 5 14.5 45.1 0.00 0.86 0.25 75 1006.3
20191016214914 8 5 14.5 45.1 0.00 0.86 0.25 75 1006.4
20191016214813 8 3 14.5 45.1 0.00 0.86 0.25 74 1006.3
20191016214714 8 4 14.5 45.1 0.00 0.86 0.25 74 1006.4
20191016214614 8 5 14.5 45.1 0.00 0.89 0.25 74 1006.3
20191016214514 8 6 14.5 45.1 0.00 0.89 0.25 74 1006.3
20191016214414 8 7 14.5 45.1 0.00 0.89 0.25 74 1006.3
20191016214314 8 8 14.5 45.1 0.00 0.89 0.25 74 1006.1
20191016214214 8 7 14.5 45.1 0.00 0.89 0.25 74 1006.1
20191016214114 8 7 14.5 35.4 0.00 0.91 0.25 74 1006.1
20191016214014 8 9 14.5 35.4 0.00 0.91 0.25 74 1006.1
20191016213914 8 8 14.5 35.4 0.00 0.91 0.25 75 1006.2
20191016213813 8 9 14.5 35.4 0.00 0.91 0.25 75 1006.1
20191016213714 8 9 14.5 35.4 0.00 0.91 0.25 75 1006.1
20191016213614 8 8 14.5 35.4 0.00 0.91 0.25 74 1006.1
20191016213514 8 7 14.5 35.4 0.00 0.91 0.25 74 1006.1
20191016213413 8 5 14.5 35.4 0.00 0.94 0.25 74 1006.2
20191016213314 8 5 14.5 35.4 0.00 0.94 0.25 74 1006.2
20191016213214 8 6 14.5 35.4 0.00 0.94 0.25 74 1006.0
20191016213114 8 7 12.9 35.4 0.00 0.94 0.25 74 1006.1
20191016213015 8 3 12.9 35.4 0.00 0.94 0.25 75 1005.9
20191016212914 8 3 12.9 35.4 0.00 0.94 0.25 75 1005.9
20191016212814 8 5 12.9 35.4 0.00 0.94 0.25 75 1005.9
20191016212714 8 6 12.9 37.0 0.00 0.97 0.25 75 1006.0
20191016212614 8 6 12.9 37.0 0.00 0.97 0.25 75 1006.0
20191016212514 8 6 14.5 37.0 0.00 0.97 0.25 75 1005.9
20191016212414 7 7 12.9 37.0 0.00 0.97 0.25 76 1006.0
20191016212314 7 6 14.5 37.0 0.00 0.97 0.25 76 1006.0
20191016212213 7 7 14.5 37.0 0.00 0.97 0.25 76 1006.0
20191016212114 7 7 14.5 37.0 0.00 0.97 0.25 76 1006.0
20191016212014 7 9 12.9 37.0 0.00 0.97 0.25 76 1006.0
20191016211914 7 10 12.9 37.0 0.00 0.97 0.25 76 1005.9
20191016211814 7 8 12.9 37.0 0.00 0.97 0.25 76 1006.0
20191016211714 7 8 11.3 33.8 0.00 0.97 0.25 77 1005.9
20191016211614 7 7 11.3 33.8 0.00 0.97 0.25 77 1006.0
20191016211514 7 8 9.7 33.8 0.00 0.97 0.25 77 1005.8
20191016211413 7 6 9.7 33.8 0.00 0.97 0.25 77 1005.8
20191016211314 7 6 9.7 33.8 0.00 0.97 0.25 77 1006.0
20191016211214 7 4 9.7 27.4 0.00 0.97 0.25 77 1005.8
20191016211113 7 4 9.7 27.4 0.00 0.97 0.25 77 1005.9
20191016211014 7 5 9.7 27.4 0.00 0.97 0.25 77 1005.9
20191016210914 7 4 9.7 27.4 0.00 0.97 0.25 77 1005.9
20191016210813 7 3 9.7 27.4 0.00 0.97 0.25 77 1005.9
20191016210714 7 2 9.7 27.4 0.00 0.97 0.25 77 1005.9
20191016210614 7 1 9.7 25.7 0.00 0.97 0.25 78 1005.9
20191016210514 7 359 9.7 25.7 0.00 0.97 0.25 78 1005.9
20191016210414 7 1 9.7 25.7 0.00 0.97 0.25 78 1005.9
20191016210314 7 359 9.7 25.7 0.00 0.97 0.25 78 1005.7
20191016210214 7 358 9.7 45.1 0.00 0.97 0.25 78 1005.8
20191016210113 7 358 9.7 45.1 0.00 0.97 0.25 78 1005.8
20191016210015 7 357 9.7 45.1 0.00 0.97 0.25 78 1005.8
20191016205914 7 359 11.3 45.1 0.00 0.99 0.25 78 1005.8
20191016205814 7 3 11.3 45.1 0.00 0.99 0.25 78 1005.7
20191016205714 7 5 11.3 45.1 0.00 0.99 0.25 77 1005.6
20191016205613 8 7 12.9 45.1 0.00 0.99 0.25 78 1005.7
20191016205514 8 7 12.9 45.1 0.00 0.99 0.25 77 1005.8
20191016205413 8 8 14.5 45.1 0.00 0.99 0.25 77 1005.7
20191016205314 8 10 14.5 45.1 0.00 0.99 0.25 76 1005.7
20191016205214 8 10 16.1 40.2 0.00 0.99 0.25 76 1005.7
20191016205113 8 10 16.1 40.2 0.00 0.99 0.25 75 1005.7
20191016205014 8 11 16.1 35.4 0.00 0.99 0.25 75 1005.6
20191016204914 8 10 16.1 35.4 0.00 0.99 0.25 75 1005.6
20191016204813 8 8 16.1 35.4 0.00 0.99 0.25 75 1005.7
20191016204713 8 9 17.7 53.1 0.00 0.99 0.25 75 1005.6
20191016204614 8 9 17.7 53.1 0.00 0.99 0.25 75 1005.6
20191016204514 8 10 17.7 53.1 0.00 0.99 0.25 75 1005.5
20191016204413 8 9 17.7 53.1 0.00 0.99 0.25 75 1005.6
20191016204314 8 9 17.7 53.1 0.00 0.99 0.25 75 1005.6
20191016204214 8 9 16.1 53.1 0.00 0.99 0.25 75 1005.6
20191016204113 8 9 16.1 53.1 0.00 0.99 0.25 75 1005.6
20191016204014 8 7 16.1 53.1 0.00 0.99 0.25 75 1005.6
20191016203914 8 6 16.1 53.1 0.00 0.99 0.25 75 1005.4
20191016203814 8 5 16.1 53.1 0.00 0.99 0.25 76 1005.5
20191016203714 8 2 16.1 43.5 0.00 0.99 0.25 75 1005.6
20191016203614 8 359 14.5 40.2 0.00 0.99 0.25 76 1005.6
20191016203514 8 359 14.5 40.2 0.00 0.99 0.25 76 1005.6
20191016203414 7 2 14.5 40.2 0.00 0.99 0.25 76 1005.5
20191016203313 7 1 14.5 40.2 0.00 0.99 0.25 76 1005.5
20191016203214 8 1 14.5 40.2 0.00 0.99 0.25 76 1005.5
20191016203114 8 359 14.5 40.2 0.00 0.99 0.25 76 1005.5
20191016203015 8 1 14.5 40.2 0.00 0.99 0.25 75 1005.4
20191016202914 8 2 16.1 40.2 0.00 0.99 0.25 76 1005.3
20191016202814 8 4 16.1 41.8 0.00 0.99 0.25 76 1005.4
20191016202714 8 7 16.1 41.8 0.00 0.99 0.25 76 1005.4
20191016202614 8 8 16.1 41.8 0.00 0.99 0.25 77 1005.4
20191016202514 8 7 16.1 41.8 0.00 0.99 0.25 77 1005.4
20191016202414 8 6 16.1 41.8 0.00 0.99 0.25 77 1005.4
20191016202314 8 7 17.7 41.8 0.00 0.99 0.25 77 1005.2
20191016202213 8 7 17.7 41.8 0.00 0.99 0.25 76 1005.4
20191016202114 8 7 16.1 41.8 0.00 0.99 0.25 76 1005.3
20191016202014 8 8 16.1 41.8 0.00 0.99 0.25 76 1005.3
20191016201915 8 9 14.5 41.8 0.00 0.99 0.25 76 1005.3
20191016201814 8 9 12.9 40.2 0.00 0.99 0.25 77 1005.2
20191016201715 8 7 12.9 40.2 0.00 0.99 0.25 77 1005.2
20191016201614 7 7 12.9 40.2 0.00 0.99 0.25 77 1005.3
20191016201515 7 7 12.9 40.2 0.00 0.99 0.25 77 1005.2
20191016201413 7 8 12.9 30.6 0.00 0.99 0.25 77 1005.2
20191016201314 7 8 11.3 33.8 0.00 0.99 0.25 77 1005.1
20191016201214 7 8 12.9 33.8 0.00 0.99 0.25 77 1005.2
20191016201113 7 9 12.9 33.8 0.00 0.99 0.25 77 1005.2
20191016201014 7 9 12.9 33.8 0.00 0.99 0.25 77 1005.2
20191016200913 7 9 12.9 33.8 0.00 0.99 0.25 77 1005.2
20191016200814 7 9 12.9 33.8 0.00 0.99 0.25 77 1005.2
20191016200714 7 10 12.9 33.8 0.00 0.99 0.25 77 1005.2
20191016200614 7 9 12.9 33.8 0.00 0.99 0.25 77 1005.2
20191016200513 7 9 12.9 33.8 0.00 0.99 0.25 77 1005.2
20191016200414 7 8 14.5 33.8 0.00 0.99 0.25 77 1005.1
20191016200314 7 8 14.5 46.7 0.00 0.99 0.25 77 1005.2
20191016200214 7 7 12.9 46.7 0.00 0.99 0.25 77 1005.1
20191016200113 7 7 14.5 46.7 0.00 0.99 0.25 77 1005.1
20191016200015 8 6 14.5 46.7 0.00 0.99 0.25 77 1005.1
20191016195914 8 4 14.5 46.7 0.00 0.99 0.25 76 1005.0
20191016195813 8 4 16.1 46.7 0.00 0.99 0.25 76 1005.0
20191016195714 8 5 17.7 46.7 0.00 0.99 0.25 76 1004.9
20191016195614 8 5 17.7 46.7 0.00 0.99 0.25 76 1005.0
20191016195513 8 6 17.7 46.7 0.00 0.99 0.25 76 1005.0
20191016195414 8 6 16.1 46.7 0.00 0.99 0.25 76 1004.9
20191016195314 8 7 17.7 38.6 0.00 0.99 0.25 76 1004.9
20191016195213 8 7 17.7 38.6 0.00 0.99 0.25 76 1004.9
20191016195113 8 7 17.7 33.8 0.00 0.99 0.25 76 1004.9
20191016195014 8 7 17.7 33.8 0.00 0.99 0.25 76 1004.9
20191016194914 8 9 17.7 33.8 0.00 0.99 0.25 76 1004.8
20191016194813 8 9 17.7 33.8 0.00 0.99 0.25 76 1004.8
20191016194714 7 9 16.1 32.2 0.00 0.99 0.25 76 1004.8
20191016194614 8 8 16.1 32.2 0.00 0.99 0.25 76 1004.8
20191016194514 7 7 16.1 32.2 0.00 0.99 0.25 76 1004.8
20191016194414 7 6 16.1 32.2 0.00 0.99 0.25 77 1004.8
20191016194314 7 6 16.1 33.8 0.00 0.99 0.25 76 1004.7
20191016194214 7 6 16.1 33.8 0.00 0.99 0.25 76 1004.7
20191016194114 7 6 14.5 33.8 0.00 0.99 0.25 76 1004.7
20191016194014 7 6 14.5 33.8 0.00 0.99 0.25 77 1004.7
20191016193914 7 6 14.5 33.8 0.00 0.99 0.25 77 1004.7
20191016193814 7 5 14.5 33.8 0.00 0.99 0.25 77 1004.7
20191016193714 7 5 14.5 33.8 0.00 0.99 0.25 77 1004.6
20191016193614 7 5 14.5 33.8 0.00 0.99 0.25 77 1004.6
20191016193514 7 5 14.5 33.8 0.00 0.99 0.25 77 1004.7
20191016193414 7 6 14.5 33.8 0.00 0.99 0.25 77 1004.6
20191016193314 7 5 14.5 32.2 0.00 0.99 0.25 77 1004.6
20191016193213 7 4 14.5 32.2 0.00 0.99 0.25 77 1004.6
20191016193114 7 4 14.5 32.2 0.00 0.99 0.25 77 1004.6
20191016193015 7 4 16.1 32.2 0.00 0.99 0.25 77 1004.6
20191016192914 7 3 14.5 41.8 0.00 0.99 0.25 77 1004.6
20191016192814 7 3 14.5 41.8 0.00 0.99 0.25 77 1004.5
20191016192714 7 3 14.5 41.8 0.00 0.99 0.25 77 1004.5
20191016192613 7 3 14.5 41.8 0.00 0.99 0.25 77 1004.5
20191016192514 7 2 14.5 41.8 0.00 0.99 0.25 77 1004.5
20191016192414 7 2 14.5 41.8 0.00 0.99 0.25 77 1004.4
20191016192314 7 4 14.5 41.8 0.00 0.99 0.25 77 1004.5
20191016192214 7 3 14.5 41.8 0.00 0.99 0.25 77 1004.5
20191016192114 7 4 12.9 41.8 0.00 0.99 0.25 77 1004.4
20191016192014 7 5 12.9 41.8 0.00 0.99 0.25 77 1004.4
20191016191913 7 6 12.9 27.4 0.00 0.99 0.25 77 1004.4
20191016191814 7 7 12.9 30.6 0.00 0.99 0.25 77 1004.3
20191016191713 7 8 12.9 30.6 0.00 0.99 0.25 77 1004.4
20191016191613 7 9 14.5 30.6 0.00 0.99 0.25 77 1004.4
20191016191513 7 10 14.5 30.6 0.00 0.99 0.25 77 1004.4
20191016191414 7 9 14.5 30.6 0.00 0.99 0.25 77 1004.3
20191016191314 7 9 14.5 30.6 0.00 0.99 0.25 77 1004.4
20191016191214 7 10 14.5 30.6 0.00 0.99 0.25 77 1004.3
20191016191114 7 10 16.1 32.2 0.00 0.99 0.25 77 1004.3
20191016191013 7 11 16.1 38.6 0.00 0.99 0.25 77 1004.3
20191016190914 7 10 17.7 38.6 0.00 0.99 0.25 77 1004.3
20191016190814 7 9 17.7 38.6 0.00 0.99 0.25 77 1004.3
20191016190713 7 10 17.7 38.6 0.00 0.99 0.25 77 1004.3
20191016190614 7 10 19.3 38.6 0.00 0.99 0.25 77 1004.2
20191016190514 7 11 19.3 38.6 0.00 0.99 0.25 77 1004.3
20191016190413 7 11 19.3 38.6 0.00 0.99 0.25 77 1004.3
20191016190314 7 12 20.9 38.6 0.00 0.99 0.25 77 1004.1
20191016190213 7 12 20.9 45.1 0.00 0.99 0.25 77 1004.2
20191016190113 7 13 20.9 45.1 0.00 0.99 0.25 77 1004.3
20191016190016 7 13 20.9 48.3 0.00 0.99 0.25 77 1004.1
20191016185913 7 13 20.9 48.3 0.00 0.99 0.25 77 1004.3
20191016185814 7 13 19.3 48.3 0.00 0.99 0.25 77 1004.3
20191016185714 7 13 20.9 48.3 0.00 0.99 0.25 77 1004.1
20191016185613 7 12 19.3 48.3 0.00 0.99 0.25 77 1004.2
20191016185514 7 11 20.9 48.3 0.00 0.99 0.25 77 1004.1
20191016185414 7 11 20.9 48.3 0.00 0.99 0.25 77 1004.1
20191016185314 7 11 20.9 48.3 0.00 0.99 0.25 77 1004.1
20191016185213 7 11 19.3 48.3 0.00 0.99 0.25 77 1004.1
20191016185113 7 10 19.3 48.3 0.00 0.99 0.25 77 1004.1
20191016185014 7 9 19.3 41.8 0.00 0.99 0.25 77 1004.1
20191016184913 7 9 19.3 41.8 0.00 0.99 0.25 77 1004.1
20191016184814 7 10 20.9 41.8 0.00 0.99 0.25 76 1004.1
20191016184713 7 10 20.9 41.8 0.00 0.99 0.25 76 1004.1
20191016184613 7 11 20.9 41.8 0.00 0.99 0.25 77 1003.9
20191016184514 7 11 20.9 41.8 0.00 0.99 0.25 76 1004.1
20191016184413 7 12 20.9 41.8 0.00 0.99 0.25 77 1004.0
20191016184313 7 12 20.9 41.8 0.00 0.99 0.25 76 1004.0
20191016184214 7 12 20.9 41.8 0.00 0.99 0.25 77 1004.0
20191016184113 7 12 22.5 41.8 0.00 0.99 0.25 76 1004.0
20191016184014 7 12 20.9 38.6 0.00 0.99 0.25 76 1004.0
20191016183914 7 12 20.9 38.6 0.00 0.99 0.25 76 1003.9
20191016183813 7 13 20.9 38.6 0.00 0.99 0.25 76 1004.0
20191016183714 7 12 22.5 48.3 0.00 0.99 0.25 76 1003.9
20191016183614 7 11 20.9 48.3 0.00 0.99 0.25 76 1004.0
20191016183514 7 11 20.9 48.3 0.00 0.99 0.25 76 1003.9
20191016183413 7 10 20.9 48.3 0.00 0.99 0.25 76 1003.8
20191016183314 7 11 22.5 48.3 0.00 0.99 0.25 76 1003.9
20191016183214 7 10 22.5 48.3 0.00 0.99 0.25 76 1003.9
20191016183114 7 11 22.5 48.3 0.00 0.99 0.25 76 1003.9
20191016183016 7 11 20.9 48.3 0.00 0.99 0.25 76 1003.9
20191016182914 7 10 20.9 48.3 0.00 0.99 0.25 76 1003.8
20191016182813 7 10 20.9 48.3 0.00 0.99 0.25 76 1003.8
20191016182714 7 10 19.3 38.6 0.00 0.99 0.25 76 1003.8
20191016182614 7 10 19.3 38.6 0.00 1.02 0.25 76 1003.7
20191016182513 7 10 19.3 37.0 0.00 1.02 0.25 76 1003.8
20191016182414 7 8 19.3 37.0 0.00 1.02 0.25 75 1003.8
20191016182314 7 8 19.3 37.0 0.00 1.02 0.25 75 1003.9
20191016182213 7 9 17.7 37.0 0.00 1.02 0.25 75 1003.8
20191016182114 7 8 16.1 37.0 0.00 1.02 0.25 74 1003.8
20191016182014 7 9 16.1 37.0 0.00 1.02 0.25 74 1003.7
20191016181913 7 10 17.7 37.0 0.00 1.02 0.25 74 1003.7
20191016181814 7 10 17.7 37.0 0.00 1.02 0.25 74 1003.8
20191016181714 7 10 17.7 37.0 0.00 1.02 0.25 74 1003.7
20191016181613 7 11 16.1 37.0 0.00 1.02 0.25 74 1003.8
20191016181513 7 11 16.1 37.0 0.00 1.04 0.25 73 1003.7
20191016181414 7 12 16.1 37.0 0.00 1.04 0.25 72 1003.8
20191016181314 7 11 16.1 33.8 0.00 1.04 0.25 72 1003.7
20191016181213 7 10 16.1 33.8 0.00 1.04 0.25 72 1003.8
20191016181113 7 9 17.7 33.8 0.00 1.04 0.25 72 1003.7
20191016181014 7 9 17.7 33.8 0.00 1.04 0.25 72 1003.7
20191016180913 7 8 16.1 32.2 0.00 1.04 0.25 71 1003.8
20191016180813 7 9 16.1 33.8 0.00 1.07 0.25 71 1003.8
20191016180714 7 10 17.7 41.8 0.00 1.07 0.25 71 1003.6
20191016180613 7 9 17.7 41.8 0.00 1.07 0.25 71 1003.7
20191016180514 7 9 17.7 41.8 0.00 1.07 0.25 71 1003.7
20191016180414 7 10 19.3 41.8 0.00 1.07 0.25 71 1003.6
20191016180313 7 10 19.3 41.8 0.00 1.07 0.25 70 1003.7
20191016180213 7 10 19.3 41.8 0.00 1.07 0.25 69 1003.7
20191016180114 7 12 19.3 41.8 0.00 1.07 0.25 70 1003.7
20191016180016 7 12 20.9 41.8 0.00 1.07 0.25 70 1003.7
20191016175913 7 12 20.9 41.8 0.00 1.07 0.25 70 1003.7
20191016175814 7 11 20.9 41.8 0.00 1.07 0.25 70 1003.6
20191016175714 7 11 19.3 40.2 0.00 1.07 0.25 70 1003.7
20191016175613 7 11 19.3 40.2 0.00 1.07 0.25 69 1003.5
20191016175514 7 13 19.3 40.2 0.00 1.07 0.25 69 1003.6
20191016175413 7 13 19.3 40.2 0.00 1.07 0.25 68 1003.6
20191016175313 7 12 19.3 40.2 0.00 1.07 0.25 68 1003.5
20191016175214 7 13 19.3 40.2 0.00 1.07 0.25 68 1003.6
20191016175114 7 12 19.3 40.2 0.00 1.09 0.25 68 1003.5
20191016175013 7 13 19.3 40.2 0.00 1.09 0.25 68 1003.6
20191016174914 7 12 17.7 40.2 0.00 1.09 0.25 69 1003.6
20191016174813 7 13 17.7 40.2 0.00 1.09 0.25 69 1003.6
20191016174713 7 13 19.3 41.8 0.00 1.09 0.25 69 1003.6
20191016174614 7 13 19.3 41.8 0.00 1.09 0.25 70 1003.5
20191016174514 7 12 19.3 41.8 0.00 1.09 0.25 70 1003.6
20191016174413 7 12 19.3 41.8 0.00 1.09 0.25 70 1003.6
20191016174313 7 13 19.3 41.8 0.00 1.09 0.25 71 1003.6
20191016174214 7 12 19.3 46.7 0.00 1.09 0.25 71 1003.6
20191016174114 7 12 19.3 46.7 0.00 1.09 0.25 72 1003.5
20191016174013 7 12 19.3 46.7 0.00 1.09 0.25 72 1003.5
20191016173914 7 12 20.9 46.7 0.00 1.09 0.25 72 1003.4
20191016173813 7 11 19.3 46.7 0.00 1.09 0.25 72 1003.5
20191016173713 7 11 19.3 46.7 0.00 1.09 0.25 72 1003.4
20191016173614 7 11 19.3 46.7 0.00 1.09 0.25 72 1003.5
20191016173513 7 11 19.3 46.7 0.00 1.09 0.25 71 1003.5
20191016173414 7 11 19.3 46.7 0.00 1.09 0.25 72 1003.5
20191016173314 7 12 19.3 46.7 0.00 1.09 0.25 72 1003.5
20191016173213 7 12 17.7 40.2 0.00 1.09 0.25 71 1003.5
20191016173114 7 12 17.7 40.2 0.00 1.09 0.25 71 1003.4
20191016173015 7 12 19.3 40.2 0.00 1.09 0.25 71 1003.4
20191016172913 7 12 17.7 35.4 0.00 1.09 0.25 71 1003.5
20191016172814 7 13 17.7 35.4 0.00 1.09 0.25 72 1003.5
20191016172713 7 13 19.3 35.4 0.00 1.09 0.25 72 1003.4
20191016172613 7 14 19.3 35.4 0.00 1.09 0.25 72 1003.4
20191016172514 7 14 19.3 35.4 0.00 1.09 0.25 73 1003.4
20191016172414 7 14 19.3 35.4 0.00 1.09 0.25 73 1003.4
20191016172313 7 13 19.3 35.4 0.00 1.09 0.25 73 1003.3
20191016172213 7 14 19.3 45.1 0.00 1.09 0.25 74 1003.3
20191016172114 7 14 20.9 45.1 0.00 1.09 0.25 74 1003.2
20191016172014 7 14 20.9 45.1 0.00 1.09 0.25 74 1003.3
20191016171913 7 13 20.9 45.1 0.00 1.09 0.25 74 1003.2
20191016171813 7 13 20.9 45.1 0.00 1.09 0.25 74 1003.2
20191016171714 7 12 19.3 45.1 0.00 1.09 0.25 74 1003.2
20191016171613 7 13 20.9 45.1 0.00 1.09 0.25 74 1003.2
20191016171513 7 13 20.9 45.1 0.00 1.09 0.25 75 1003.1
20191016171413 7 14 20.9 45.1 0.00 1.09 0.25 74 1003.2
20191016171314 7 14 22.5 45.1 0.00 1.09 0.25 74 1003.1
20191016171213 7 14 22.5 41.8 0.00 1.09 0.25 74 1003.1
20191016171113 7 14 22.5 41.8 0.00 1.09 0.25 74 1003.2
20191016171014 7 14 22.5 46.7 0.00 1.09 0.25 74 1003.1
20191016170914 7 14 22.5 46.7 0.00 1.09 0.25 75 1003.1
20191016170813 7 14 22.5 46.7 0.00 1.09 0.25 75 1003.1
20191016170714 7 15 22.5 46.7 0.00 1.09 0.25 75 1003.1
20191016170614 7 14 22.5 46.7 0.00 1.09 0.25 75 1003.2
20191016170513 7 13 20.9 46.7 0.00 1.09 0.25 75 1003.1
20191016170414 7 13 22.5 46.7 0.00 1.09 0.25 75 1003.1
20191016170313 7 13 22.5 46.7 0.00 1.09 0.25 75 1003.0
20191016170213 7 12 22.5 46.7 0.00 1.12 0.25 75 1003.1
20191016170114 7 12 22.5 46.7 0.00 1.12 0.25 75 1003.0
20191016170015 7 12 20.9 43.5 0.00 1.12 0.25 75 1003.1
20191016165914 7 12 20.9 43.5 0.00 1.12 0.25 75 1003.1
20191016165813 7 12 22.5 43.5 0.00 1.12 0.25 75 1003.1
20191016165713 7 12 22.5 43.5 0.00 1.12 0.25 75 1003.1
20191016165613 7 12 22.5 43.5 0.00 1.12 0.25 75 1003.0
20191016165514 7 12 22.5 43.5 0.00 1.12 0.25 75 1003.0
20191016165413 7 12 20.9 43.5 0.00 1.12 0.25 75 1003.0
20191016165314 7 13 22.5 43.5 0.00 1.12 0.25 75 1003.1
20191016165213 7 13 22.5 41.8 0.00 1.12 0.25 75 1003.1
20191016165114 7 14 20.9 41.8 0.00 1.12 0.25 75 1003.0
20191016165013 7 14 20.9 41.8 0.00 1.12 0.25 75 1003.0
20191016164913 7 14 20.9 41.8 0.00 1.12 0.25 74 1003.0
20191016164813 7 14 20.9 41.8 0.00 1.12 0.25 74 1003.0
20191016164714 7 13 20.9 41.8 0.00 1.12 0.25 74 1002.8
20191016164613 7 13 20.9 41.8 0.00 1.12 0.25 74 1002.9
20191016164513 7 14 22.5 43.5 0.00 1.12 0.25 74 1002.9
20191016164414 7 14 20.9 43.5 0.00 1.12 0.25 74 1002.9
20191016164313 7 13 19.3 43.5 0.00 1.12 0.25 73 1002.9
20191016164213 7 14 19.3 43.5 0.00 1.12 0.25 74 1003.0
20191016164114 7 13 19.3 43.5 0.00 1.12 0.25 74 1002.9
20191016164014 7 14 20.9 43.5 0.00 1.12 0.25 74 1002.8
20191016163913 7 14 20.9 43.5 0.00 1.12 0.25 73 1002.8
20191016163814 7 15 20.9 43.5 0.00 1.12 0.25 73 1002.8
20191016163714 7 15 20.9 43.5 0.00 1.12 0.25 72 1002.8
20191016163613 7 15 19.3 43.5 0.00 1.12 0.25 72 1002.9
20191016163514 7 14 19.3 43.5 0.00 1.12 0.25 71 1002.8
20191016163413 7 15 19.3 43.5 0.00 1.12 0.25 71 1002.9
20191016163314 7 15 19.3 43.5 0.00 1.12 0.25 71 1002.7
20191016163213 7 15 19.3 43.5 0.00 1.12 0.25 71 1002.7
20191016163113 7 15 17.7 43.5 0.00 1.12 0.25 70 1002.7
20191016163015 7 15 17.7 38.6 0.00 1.12 0.25 70 1002.7
20191016162913 7 14 17.7 38.6 0.00 1.12 0.25 70 1002.7
20191016162814 7 15 17.7 38.6 0.00 1.12 0.25 70 1002.6
20191016162713 7 17 17.7 38.6 0.00 1.12 0.25 70 1002.6
20191016162613 7 19 19.3 38.6 0.00 1.12 0.25 69 1002.6
20191016162514 7 19 19.3 37.0 0.00 1.12 0.25 69 1002.6
20191016162413 7 19 19.3 37.0 0.00 1.12 0.25 69 1002.6
20191016162313 7 21 19.3 37.0 0.00 1.12 0.25 69 1002.6
20191016162214 7 20 20.9 37.0 0.00 1.12 0.25 70 1002.6
20191016162114 7 21 20.9 37.0 0.00 1.12 0.25 70 1002.6
20191016162013 6 21 22.5 37.0 0.00 1.12 0.25 70 1002.6
20191016161913 6 21 22.5 37.0 0.00 1.12 0.25 70 1002.6
20191016161814 6 21 22.5 37.0 0.00 1.12 0.25 70 1002.6
20191016161713 6 21 22.5 37.0 0.00 1.12 0.25 70 1002.6
20191016161613 6 21 24.1 41.8 0.00 1.12 0.25 70 1002.6
20191016161514 6 21 24.1 41.8 0.00 1.12 0.25 70 1002.6
20191016161413 6 21 22.5 41.8 0.00 1.14 0.25 70 1002.5
20191016161313 6 21 22.5 41.8 0.00 1.14 0.25 70 1002.5
20191016161214 6 22 24.1 41.8 0.00 1.14 0.25 70 1002.6
20191016161113 6 21 24.1 41.8 0.00 1.14 0.25 71 1002.6
20191016161014 6 22 25.7 41.8 0.00 1.14 0.25 71 1002.6
20191016160914 6 21 24.1 41.8 0.00 1.14 0.25 71 1002.5
20191016160813 6 21 25.7 41.8 0.00 1.14 0.25 72 1002.5
20191016160713 6 21 25.7 49.9 0.00 1.14 0.25 72 1002.5
20191016160614 6 20 25.7 49.9 0.00 1.14 0.25 71 1002.5
20191016160513 6 21 25.7 49.9 0.00 1.14 0.25 72 1002.5
20191016160414 6 21 27.4 49.9 0.00 1.14 0.25 72 1002.5
20191016160313 6 21 27.4 49.9 0.00 1.14 0.25 72 1002.5
20191016160213 6 21 27.4 49.9 0.03 1.14 0.25 71 1002.5
20191016160114 6 22 27.4 49.9 0.03 1.14 0.25 71 1002.5
20191016160016 6 21 27.4 49.9 0.03 1.14 0.25 71 1002.5
20191016155913 6 22 27.4 49.9 0.03 1.14 0.25 71 1002.4
20191016155813 6 21 27.4 49.9 0.03 1.14 0.25 71 1002.5
20191016155714 6 21 25.7 48.3 0.03 1.14 0.25 71 1002.4
20191016155613 6 21 27.4 48.3 0.03 1.14 0.25 71 1002.4
20191016155513 6 20 25.7 48.3 0.03 1.14 0.25 70 1002.5
20191016155414 6 20 25.7 48.3 0.03 1.14 0.25 71 1002.4
20191016155313 6 20 27.4 48.3 0.03 1.14 0.25 71 1002.4
20191016155213 6 20 25.7 48.3 0.03 1.14 0.25 71 1002.4
20191016155115 6 19 25.7 46.7 0.03 1.14 0.25 71 1002.3
20191016155013 6 19 25.7 46.7 0.03 1.14 0.25 71 1002.4
20191016154913 6 19 25.7 48.3 0.03 1.14 0.25 72 1002.4
20191016154814 6 19 25.7 48.3 0.03 1.14 0.25 72 1002.3
20191016154713 6 20 27.4 48.3 0.03 1.17 0.25 73 1002.3
20191016154613 6 20 25.7 48.3 0.03 1.17 0.25 73 1002.3
20191016154514 6 20 25.7 48.3 0.03 1.17 0.25 73 1002.3
20191016154413 6 20 25.7 48.3 0.03 1.17 0.25 73 1002.3
20191016154313 6 20 25.7 48.3 0.03 1.17 0.25 73 1002.2
20191016154214 6 20 25.7 48.3 0.03 1.17 0.25 73 1002.2
20191016154113 6 20 25.7 48.3 0.03 1.17 0.25 74 1002.2
20191016154014 6 21 25.7 48.3 0.03 1.17 0.25 73 1002.2
20191016153913 6 20 25.7 45.1 0.03 1.17 0.25 73 1002.2
20191016153813 6 21 25.7 45.1 0.03 1.17 0.25 73 1002.1
20191016153713 6 21 25.7 45.1 0.03 1.17 0.25 73 1002.1
20191016153614 6 22 27.4 45.1 0.03 1.17 0.25 73 1002.1
20191016153513 6 21 27.4 45.1 0.03 1.17 0.25 73 1002.1
20191016153414 6 21 27.4 45.1 0.03 1.17 0.25 74 1002.0
20191016153313 6 20 27.4 45.1 0.03 1.17 0.25 74 1002.1
20191016153213 6 21 27.4 43.5 0.03 1.17 0.25 73 1002.1
20191016153113 6 20 27.4 43.5 0.03 1.17 0.25 73 1002.1
20191016153015 6 19 27.4 43.5 0.03 1.17 0.25 73 1002.0
20191016152914 6 20 27.4 43.5 0.03 1.17 0.25 73 1002.0
20191016152813 6 20 27.4 41.8 0.03 1.17 0.25 73 1002.0
20191016152713 6 21 29.0 43.5 0.03 1.17 0.25 73 1001.9
20191016152613 6 20 29.0 43.5 0.03 1.17 0.25 73 1001.9
20191016152514 6 21 29.0 45.1 0.03 1.17 0.25 73 1001.9
20191016152413 6 21 29.0 45.1 0.03 1.17 0.25 73 1001.9
20191016152313 6 22 29.0 45.1 0.03 1.17 0.25 73 1001.9
20191016152214 6 22 29.0 45.1 0.03 1.17 0.25 72 1001.9
20191016152113 6 23 29.0 45.1 0.03 1.17 0.25 73 1001.8
20191016152013 6 23 29.0 45.1 0.03 1.17 0.25 73 1001.9
20191016151914 6 23 29.0 45.1 0.03 1.17 0.25 73 1001.8
20191016151813 6 22 29.0 45.1 0.03 1.17 0.25 73 1001.9
20191016151713 6 21 29.0 45.1 0.03 1.17 0.25 72 1001.8
20191016151614 6 22 29.0 45.1 0.03 1.17 0.25 72 1001.8
20191016151513 6 21 27.4 45.1 0.03 1.17 0.25 72 1001.8
20191016151413 6 20 27.4 45.1 0.03 1.17 0.25 72 1001.8
20191016151314 6 20 27.4 45.1 0.03 1.17 0.25 72 1001.7
20191016151213 6 20 27.4 45.1 0.03 1.17 0.25 72 1001.7
20191016151113 6 20 25.7 45.1 0.03 1.17 0.25 71 1001.8
20191016151013 6 20 27.4 45.1 0.03 1.17 0.25 70 1001.8
20191016150914 6 20 25.7 45.1 0.03 1.17 0.25 71 1001.8
20191016150813 6 19 25.7 45.1 0.03 1.17 0.25 71 1001.7
20191016150714 6 19 25.7 45.1 0.03 1.17 0.25 71 1001.7
20191016150613 6 18 24.1 45.1 0.03 1.17 0.25 70 1001.7
20191016150514 6 18 24.1 45.1 0.03 1.17 0.25 70 1001.7
20191016150413 6 19 24.1 45.1 0.03 1.17 0.25 70 1001.7
20191016150313 6 19 22.5 43.5 0.03 1.17 0.25 69 1001.7
20191016150213 6 19 20.9 43.5 0.00 1.14 0.23 69 1001.6
20191016150113 6 19 22.5 43.5 0.00 1.14 0.23 69 1001.6
20191016150016 6 19 20.9 32.2 0.00 1.14 0.23 68 1001.6
20191016145913 6 18 20.9 37.0 0.00 1.14 0.23 68 1001.5
20191016145813 6 19 20.9 37.0 0.00 1.14 0.23 68 1001.5
20191016145714 6 19 20.9 37.0 0.00 1.14 0.23 68 1001.5
20191016145613 6 19 22.5 41.8 0.00 1.14 0.23 68 1001.6
20191016145513 6 19 22.5 41.8 0.00 1.14 0.23 68 1001.5
20191016145414 6 20 24.1 41.8 0.00 1.14 0.23 68 1001.5
20191016145313 6 19 24.1 41.8 0.00 1.14 0.23 68 1001.5
20191016145213 6 19 24.1 41.8 0.00 1.14 0.23 68 1001.4
20191016145113 6 19 24.1 41.8 0.00 1.14 0.23 68 1001.4
20191016145014 6 19 25.7 41.8 0.00 1.14 0.23 68 1001.3
20191016144913 6 20 25.7 41.8 0.00 1.14 0.23 68 1001.2
20191016144813 6 20 25.7 41.8 0.00 1.14 0.23 69 1001.3
20191016144713 6 20 25.7 41.8 0.00 1.14 0.23 69 1001.3
20191016144613 6 20 25.7 40.2 0.00 1.14 0.23 69 1001.3
20191016144513 6 20 25.7 40.2 0.00 1.14 0.23 69 1001.3
20191016144414 6 19 25.7 40.2 0.00 1.14 0.23 69 1001.3
20191016144313 6 20 25.7 40.2 0.00 1.14 0.23 69 1001.3
20191016144213 6 20 25.7 40.2 0.00 1.14 0.23 69 1001.3
20191016144114 6 20 25.7 40.2 0.00 1.14 0.23 69 1001.2
20191016144013 6 20 24.1 40.2 0.00 1.14 0.23 68 1001.2
20191016143913 6 20 24.1 40.2 0.00 1.14 0.23 68 1001.2
20191016143814 6 20 24.1 40.2 0.00 1.14 0.23 68 1001.2
20191016143713 6 19 24.1 40.2 0.03 1.14 0.23 68 1001.2
20191016143613 6 19 24.1 40.2 0.03 1.14 0.23 68 1001.2
20191016143513 6 19 22.5 40.2 0.03 1.14 0.23 68 1001.3
20191016143414 6 17 22.5 37.0 0.03 1.14 0.23 68 1001.3
20191016143313 6 17 22.5 37.0 0.03 1.14 0.23 68 1001.3
20191016143214 6 16 20.9 37.0 0.03 1.14 0.23 68 1001.2
20191016143114 6 16 20.9 37.0 0.03 1.14 0.23 68 1001.2
20191016143015 6 15 22.5 37.0 0.03 1.14 0.23 68 1001.2
20191016142914 6 15 22.5 37.0 0.03 1.14 0.23 68 1001.2
20191016142813 6 15 22.5 45.1 0.03 1.14 0.23 68 1001.2
20191016142713 6 15 22.5 45.1 0.03 1.14 0.23 68 1001.2
20191016142613 6 15 22.5 45.1 0.03 1.14 0.23 68 1001.2
20191016142514 6 15 22.5 45.1 0.03 1.14 0.23 68 1001.1
20191016142414 6 16 24.1 45.1 0.03 1.14 0.23 68 1001.2
20191016142313 6 17 24.1 45.1 0.03 1.14 0.23 68 1001.1
20191016142214 6 17 24.1 45.1 0.03 1.14 0.23 68 1001.0
20191016142113 6 17 25.7 45.1 0.03 1.14 0.23 68 1001.1
20191016142014 6 18 25.7 56.3 0.03 1.14 0.23 68 1001.1
20191016141914 6 19 27.4 56.3 0.03 1.14 0.23 68 1001.0
20191016141813 6 18 25.7 56.3 0.03 1.14 0.23 68 1001.0
20191016141714 6 19 27.4 56.3 0.03 1.14 0.23 68 1001.0
20191016141613 6 19 27.4 56.3 0.03 1.14 0.23 68 1001.0
20191016141513 6 19 29.0 56.3 0.03 1.14 0.23 68 1001.0
20191016141414 6 19 29.0 56.3 0.03 1.14 0.23 68 1001.0
20191016141313 6 18 27.4 56.3 0.03 1.14 0.23 69 1001.0
20191016141213 6 18 27.4 56.3 0.03 1.14 0.23 69 1000.9
20191016141114 6 18 27.4 56.3 0.03 1.14 0.23 69 1000.9
20191016141013 6 17 25.7 51.5 0.05 1.14 0.23 68 1000.8
20191016140913 6 17 25.7 51.5 0.05 1.14 0.23 68 1000.9
20191016140814 7 17 25.7 51.5 0.05 1.14 0.23 68 1000.7
20191016140713 7 17 24.1 51.5 0.05 1.14 0.23 68 1000.8
20191016140613 7 17 24.1 51.5 0.05 1.14 0.23 68 1000.8
20191016140513 7 16 22.5 46.7 0.05 1.14 0.23 68 1000.8
20191016140413 7 16 20.9 41.8 0.05 1.14 0.23 68 1000.8
20191016140313 7 17 20.9 41.8 0.05 1.14 0.23 68 1000.7
20191016140213 7 16 22.5 41.8 0.05 1.14 0.23 68 1000.7
20191016140113 7 16 22.5 41.8 0.05 1.14 0.23 68 1000.7
20191016140015 7 17 20.9 41.8 0.05 1.14 0.23 68 1000.7
20191016135913 7 17 20.9 41.8 0.05 1.14 0.23 68 1000.6
20191016135814 7 17 20.9 41.8 0.08 1.14 0.23 68 1000.7
20191016135714 7 16 20.9 38.6 0.08 1.14 0.23 67 1000.7
20191016135613 7 16 20.9 38.6 0.08 1.14 0.23 67 1000.7
20191016135513 7 16 20.9 38.6 0.08 1.14 0.23 67 1000.7
20191016135413 7 15 20.9 38.6 0.08 1.14 0.23 67 1000.6
20191016135313 7 16 22.5 38.6 0.08 1.14 0.23 68 1000.6
20191016135213 7 16 22.5 46.7 0.08 1.14 0.23 68 1000.6
20191016135114 7 16 22.5 46.7 0.08 1.14 0.23 68 1000.6
20191016135013 7 15 24.1 46.7 0.08 1.14 0.23 67 1000.6
20191016134913 7 15 22.5 46.7 0.08 1.14 0.23 67 1000.7
20191016134813 7 16 22.5 46.7 0.10 1.14 0.23 67 1000.6
20191016134713 7 16 22.5 46.7 0.10 1.14 0.23 67 1000.6
20191016134613 7 16 22.5 46.7 0.10 1.14 0.23 67 1000.5
20191016134513 7 17 24.1 46.7 0.10 1.14 0.23 67 1000.5
20191016134413 7 17 24.1 46.7 0.10 1.14 0.23 67 1000.4
20191016134313 7 17 24.1 46.7 0.10 1.14 0.23 67 1000.5
20191016134213 7 17 22.5 43.5 0.10 1.14 0.23 67 1000.5
20191016134113 7 17 20.9 41.8 0.10 1.14 0.23 67 1000.5
20191016134013 7 17 20.9 37.0 0.10 1.14 0.23 67 1000.4
20191016133913 7 18 22.5 40.2 0.10 1.14 0.23 67 1000.4
20191016133813 7 17 22.5 40.2 0.08 1.12 0.20 67 1000.4
20191016133713 7 18 22.5 41.8 0.08 1.12 0.20 67 1000.4
20191016133613 7 19 22.5 41.8 0.08 1.12 0.20 67 1000.3
20191016133513 7 18 22.5 41.8 0.08 1.12 0.20 67 1000.3
20191016133414 7 19 24.1 45.1 0.08 1.12 0.20 67 1000.3
20191016133313 7 20 25.7 45.1 0.08 1.12 0.20 67 1000.3
20191016133213 7 20 25.7 45.1 0.08 1.12 0.20 67 1000.3
20191016133113 7 20 25.7 45.1 0.08 1.12 0.20 67 1000.3
20191016133014 7 20 27.4 45.1 0.08 1.12 0.20 67 1000.3
20191016132914 7 20 27.4 45.1 0.08 1.12 0.20 67 1000.2
20191016132813 7 20 27.4 46.7 0.08 1.12 0.20 67 1000.3
20191016132713 7 20 27.4 46.7 0.08 1.12 0.20 67 1000.2
20191016132613 7 19 27.4 46.7 0.08 1.12 0.20 67 1000.2
20191016132513 7 20 27.4 46.7 0.08 1.12 0.20 67 1000.1
20191016132414 7 21 27.4 51.5 0.08 1.12 0.20 67 1000.2
20191016132313 7 20 27.4 51.5 0.08 1.12 0.20 67 1000.2
20191016132213 7 19 27.4 51.5 0.08 1.12 0.20 67 1000.2
20191016132113 7 20 25.7 51.5 0.08 1.12 0.20 67 1000.2
20191016132014 7 20 24.1 51.5 0.08 1.12 0.20 67 1000.1
20191016131913 7 21 24.1 51.5 0.08 1.12 0.20 67 1000.1
20191016131813 7 20 24.1 51.5 0.08 1.12 0.20 67 1000.1
20191016131714 7 20 24.1 51.5 0.08 1.12 0.20 67 1000.1
20191016131613 7 20 24.1 51.5 0.08 1.12 0.20 67 1000.0
20191016131513 7 19 22.5 51.5 0.08 1.12 0.20 67 1000.1
20191016131414 7 19 22.5 43.5 0.08 1.12 0.20 67 1000.0
20191016131313 7 20 20.9 43.5 0.08 1.12 0.20 67 1000.1
20191016131213 7 20 22.5 43.5 0.08 1.12 0.20 67 1000.1
20191016131113 7 19 22.5 43.5 0.08 1.12 0.20 67 1000.1
20191016131014 7 19 22.5 43.5 0.05 1.09 0.18 67 1000.0
20191016130913 7 18 22.5 43.5 0.05 1.09 0.18 67 1000.0
20191016130813 7 18 20.9 43.5 0.05 1.09 0.18 67 1000.0
20191016130713 7 17 20.9 35.4 0.05 1.09 0.18 67 1000.0
20191016130613 7 17 20.9 35.4 0.05 1.09 0.18 67 1000.0
20191016130513 7 18 20.9 35.4 0.05 1.09 0.18 67 1000.0
20191016130413 7 18 20.9 33.8 0.05 1.09 0.18 67 1000.0
20191016130313 7 18 20.9 35.4 0.05 1.09 0.18 67 999.9
20191016130214 7 18 22.5 37.0 0.05 1.09 0.18 67 999.9
20191016130113 7 19 24.1 45.1 0.05 1.09 0.18 67 999.9
20191016130015 7 20 25.7 45.1 0.05 1.09 0.18 67 999.9
20191016125913 7 20 27.4 45.1 0.03 1.07 0.15 67 999.9
20191016125814 7 21 27.4 45.1 0.03 1.07 0.15 67 999.9
20191016125713 7 21 29.0 45.1 0.03 1.07 0.15 68 999.9
20191016125614 7 20 29.0 48.3 0.03 1.07 0.15 68 999.9
20191016125513 7 20 29.0 48.3 0.03 1.07 0.15 68 999.9
20191016125413 7 20 30.6 51.5 0.03 1.07 0.15 68 999.9
20191016125313 7 20 30.6 51.5 0.03 1.07 0.15 68 999.9
20191016125213 7 20 29.0 51.5 0.03 1.07 0.15 68 999.9
20191016125114 7 19 29.0 51.5 0.03 1.07 0.15 68 999.9
20191016125013 7 19 27.4 51.5 0.03 1.07 0.15 68 999.9
20191016124913 7 18 27.4 51.5 0.00 1.04 0.13 68 999.9
20191016124813 7 17 27.4 51.5 0.00 1.04 0.13 68 999.8
20191016124713 7 18 29.0 53.1 0.00 1.04 0.13 68 999.8
20191016124614 7 18 29.0 56.3 0.00 1.04 0.13 68 999.8
20191016124513 7 17 27.4 56.3 0.00 1.04 0.13 68 999.7
20191016124413 7 17 25.7 56.3 0.00 1.04 0.13 68 999.8
20191016124314 7 17 25.7 56.3 0.00 1.04 0.13 68 999.8
20191016124213 7 17 27.4 56.3 0.00 1.04 0.13 68 999.8
20191016124113 7 17 27.4 56.3 0.00 1.04 0.13 68 999.8
20191016124013 7 17 27.4 56.3 0.00 1.04 0.13 68 999.8
20191016123913 7 17 25.7 56.3 0.00 1.04 0.13 68 999.8
20191016123813 7 18 25.7 56.3 0.00 1.04 0.13 68 999.7
20191016123713 7 17 24.1 56.3 0.00 1.04 0.13 68 999.7
20191016123614 7 17 22.5 48.3 0.00 1.04 0.13 68 999.7
20191016123513 7 17 22.5 48.3 0.00 1.04 0.13 68 999.7
20191016123413 7 17 24.1 48.3 0.00 1.04 0.13 68 999.6
20191016123313 7 17 24.1 48.3 0.00 1.04 0.13 68 999.7
20191016123213 7 16 22.5 48.3 0.00 1.04 0.13 68 999.7
20191016123113 7 16 20.9 43.5 0.00 1.04 0.13 68 999.7
20191016123014 7 16 20.9 43.5 0.00 1.04 0.13 68 999.6
20191016122913 7 16 20.9 43.5 0.00 1.04 0.13 68 999.6
20191016122813 7 15 20.9 43.5 0.00 1.04 0.13 68 999.6
20191016122713 7 15 22.5 43.5 0.00 1.04 0.13 68 999.6
20191016122613 7 14 22.5 43.5 0.03 1.04 0.13 68 999.6
20191016122514 7 14 22.5 43.5 0.03 1.04 0.13 68 999.6
20191016122414 7 15 22.5 43.5 0.03 1.04 0.13 68 999.6
20191016122313 7 15 22.5 43.5 0.03 1.04 0.13 68 999.5
20191016122213 7 16 22.5 43.5 0.03 1.04 0.13 68 999.5
20191016122113 7 15 22.5 43.5 0.03 1.04 0.13 68 999.5
20191016122016 7 16 24.1 43.5 0.03 1.04 0.13 67 999.6
20191016121913 7 15 22.5 43.5 0.03 1.04 0.13 67 999.5
20191016121813 7 16 22.5 43.5 0.03 1.04 0.13 67 999.5
20191016121714 7 16 20.9 41.8 0.03 1.04 0.13 67 999.5
20191016121613 7 16 22.5 41.8 0.03 1.04 0.13 67 999.5
20191016121515 7 16 20.9 41.8 0.05 1.04 0.13 67 999.5
20191016121412 7 16 22.5 41.8 0.05 1.04 0.13 67 999.5
20191016121313 7 16 20.9 41.8 0.05 1.04 0.13 67 999.5
20191016121213 7 16 20.9 41.8 0.05 1.04 0.13 67 999.5
20191016121113 7 16 20.9 41.8 0.05 1.04 0.13 67 999.5
20191016121014 7 16 20.9 41.8 0.05 1.04 0.13 67 999.4
20191016120912 7 17 20.9 41.8 0.05 1.04 0.13 67 999.4
20191016120813 7 16 20.9 40.2 0.05 1.04 0.13 67 999.4
20191016120713 7 17 20.9 40.2 0.05 1.04 0.13 67 999.4
20191016120613 7 18 20.9 40.2 0.05 1.04 0.13 67 999.3
20191016120515 7 18 20.9 40.2 0.08 1.04 0.13 67 999.4
20191016120413 7 18 20.9 40.2 0.08 1.04 0.13 67 999.4
20191016120313 7 17 20.9 40.2 0.08 1.04 0.13 67 999.3
20191016120213 7 17 20.9 40.2 0.08 1.04 0.13 67 999.4
20191016120113 7 17 20.9 45.1 0.08 1.04 0.13 68 999.3
20191016120019 7 17 20.9 45.1 0.08 1.04 0.13 68 999.2
20191016115913 7 17 22.5 45.1 0.10 1.04 0.13 68 999.2
20191016115813 7 18 20.9 45.1 0.10 1.04 0.13 68 999.3
20191016115713 7 17 22.5 45.1 0.10 1.04 0.13 68 999.3
20191016115613 7 17 22.5 45.1 0.10 1.04 0.13 68 999.2
20191016115513 7 17 22.5 45.1 0.10 1.04 0.13 68 999.2
20191016115413 7 17 24.1 45.1 0.10 1.04 0.13 68 999.2
20191016115312 7 18 22.5 45.1 0.10 1.04 0.13 68 999.2
20191016115214 7 18 22.5 45.1 0.10 1.04 0.13 68 999.2
20191016115113 7 18 20.9 41.8 0.10 1.04 0.13 68 999.2
20191016115013 7 18 20.9 41.8 0.10 1.04 0.13 68 999.1
20191016114913 7 18 20.9 41.8 0.10 1.04 0.13 68 999.1
20191016114813 7 18 20.9 41.8 0.10 1.04 0.13 68 999.1
20191016114713 7 17 20.9 37.0 0.10 1.04 0.13 68 999.2
20191016114613 7 17 20.9 43.5 0.10 1.04 0.13 68 999.2
20191016114513 7 17 20.9 43.5 0.10 1.04 0.13 68 999.1
20191016114413 7 17 20.9 43.5 0.10 1.04 0.13 68 999.1
20191016114313 7 16 20.9 43.5 0.10 1.04 0.13 68 999.1
20191016114215 7 17 20.9 43.5 0.10 1.04 0.13 68 999.1
20191016114115 7 17 22.5 43.5 0.10 1.04 0.13 68 999.1
20191016114013 7 16 22.5 43.5 0.10 1.04 0.13 68 999.1
20191016113914 7 17 22.5 43.5 0.10 1.04 0.13 68 999.0
20191016113813 7 17 24.1 43.5 0.10 1.04 0.13 68 999.1
20191016113713 7 17 24.1 43.5 0.10 1.04 0.13 68 999.1
20191016113613 7 18 22.5 41.8 0.10 1.04 0.13 68 999.0
20191016113513 7 18 24.1 41.8 0.10 1.04 0.13 68 999.0
20191016113413 7 18 24.1 43.5 0.10 1.04 0.13 68 999.0
20191016113313 7 19 24.1 43.5 0.10 1.04 0.13 68 999.0
20191016113213 7 19 24.1 43.5 0.10 1.04 0.13 68 999.0
20191016113113 7 19 24.1 43.5 0.10 1.04 0.13 68 999.0
20191016113014 7 20 24.1 43.5 0.10 1.04 0.13 68 999.0
20191016112913 7 20 22.5 43.5 0.10 1.04 0.13 68 999.0
20191016112813 7 19 20.9 43.5 0.10 1.04 0.13 68 998.9
20191016112713 7 20 20.9 43.5 0.08 1.02 0.10 68 998.9
20191016112613 7 20 17.7 43.5 0.08 1.02 0.10 68 998.9
20191016112513 7 20 16.1 43.5 0.08 1.02 0.10 69 998.9
20191016112413 7 20 12.9 35.4 0.08 1.02 0.10 69 998.8
20191016112312 7 20 11.3 35.4 0.08 1.02 0.10 69 998.8
20191016112213 7 19 8.0 35.4 0.08 1.02 0.10 69 998.8
20191016112113 7 20 6.4 35.4 0.08 1.02 0.10 68 998.8
20191016112014 8 20 4.8 30.6 0.08 1.02 0.10 68 998.8
20191016111912 8 23 3.2 14.5 0.08 1.02 0.10 68 998.7
20191016111813 8 27 1.6 14.5 0.08 1.02 0.10 68 998.8
20191016111713 8 29 1.6 14.5 0.08 1.02 0.10 69 998.8
20191016111613 8 42 1.6 9.7 0.05 0.99 0.08 69 998.8
20191016111513 8 43 1.6 4.8 0.05 0.99 0.08 69 998.7
20191016111413 8 43 1.6 4.8 0.05 0.99 0.08 69 998.6
20191016111313 8 43 1.6 6.4 0.05 0.99 0.08 69 998.6
20191016111212 8 45 1.6 6.4 0.05 0.99 0.08 69 998.6
20191016111113 8 46 3.2 8.0 0.05 0.99 0.08 69 998.6
20191016111013 8 43 3.2 11.3 0.05 0.99 0.08 68 998.5
20191016110913 8 40 3.2 12.9 0.05 0.99 0.08 68 998.6
20191016110813 8 39 4.8 12.9 0.05 0.99 0.08 68 998.6
20191016110713 8 37 4.8 12.9 0.05 0.99 0.08 68 998.6
20191016110613 8 36 6.4 12.9 0.03 0.97 0.05 68 998.6
20191016110513 8 35 6.4 12.9 0.03 0.97 0.05 68 998.5
20191016110413 8 35 6.4 12.9 0.03 0.97 0.05 68 998.5
20191016110313 8 33 8.0 12.9 0.03 0.97 0.05 68 998.5
20191016110213 8 32 8.0 12.9 0.03 0.97 0.05 68 998.5
20191016110113 8 30 8.0 12.9 0.03 0.97 0.05 68 998.5
20191016110015 8 30 8.0 12.9 0.03 0.97 0.05 68 998.6
20191016105913 8 31 8.0 12.9 0.03 0.94 0.03 68 998.5
20191016105812 8 32 6.4 12.9 0.03 0.94 0.03 68 998.6
20191016105713 8 32 6.4 12.9 0.03 0.94 0.03 68 998.5
20191016105613 8 32 4.8 12.9 0.03 0.94 0.03 68 998.5
20191016105513 8 33 4.8 12.9 0.03 0.94 0.03 68 998.5
20191016105413 8 33 3.2 12.9 0.03 0.94 0.03 68 998.5
20191016105313 8 38 3.2 11.3 0.03 0.94 0.03 68 998.5
20191016105213 8 47 1.6 11.3 0.03 0.94 0.03 68 998.5
20191016105114 8 152 1.6 11.3 0.03 0.94 0.03 68 998.4
20191016105013 8 187 0.0 6.4 0.03 0.94 0.03 68 998.4
20191016104913 8 186 0.0 4.8 0.03 0.94 0.03 68 998.4
20191016104812 8 186 0.0 4.8 0.03 0.94 0.03 68 998.3
20191016104713 8 186 0.0 4.8 0.03 0.94 0.03 68 998.3
20191016104613 8 186 0.0 4.8 0.03 0.94 0.03 68 998.3
20191016104514 8 186 0.0 4.8 0.03 0.94 0.03 68 998.3
20191016104413 8 186 0.0 4.8 0.03 0.94 0.03 68 998.3
20191016104313 8 186 0.0 4.8 0.03 0.94 0.03 68 998.2
20191016104213 8 186 0.0 4.8 0.03 0.94 0.03 68 998.3
20191016104113 8 186 0.0 4.8 0.03 0.94 0.03 68 998.3
20191016104013 8 186 0.0 4.8 0.03 0.94 0.03 68 998.3
20191016103912 8 186 0.0 3.2 0.03 0.94 0.03 68 998.3
20191016103813 8 186 0.0 3.2 0.03 0.94 0.03 68 998.3
20191016103713 8 186 0.0 3.2 0.03 0.94 0.03 68 998.3
20191016103613 8 186 0.0 3.2 0.03 0.94 0.03 68 998.3
20191016103513 8 186 0.0 3.2 0.03 0.94 0.03 68 998.3
20191016103413 8 186 0.0 3.2 0.03 0.94 0.03 68 998.3
20191016103313 8 186 0.0 3.2 0.03 0.94 0.03 68 998.3
20191016103212 8 183 0.0 3.2 0.03 0.94 0.03 68 998.4
20191016103113 8 181 0.0 3.2 0.03 0.94 0.03 68 998.4
20191016103015 8 181 0.0 3.2 0.03 0.94 0.03 68 998.3
20191016102913 8 181 0.0 3.2 0.03 0.94 0.03 68 998.4
20191016102813 8 181 0.0 3.2 0.03 0.94 0.03 68 998.4
20191016102713 8 178 0.0 3.2 0.03 0.94 0.03 68 998.4
20191016102613 8 177 0.0 3.2 0.03 0.94 0.03 68 998.4
20191016102515 8 176 1.6 3.2 0.03 0.94 0.03 68 998.4
20191016102414 8 176 1.6 3.2 0.03 0.94 0.03 68 998.4
20191016102314 8 176 1.6 3.2 0.03 0.94 0.03 68 998.4
20191016102213 8 174 0.0 3.2 0.03 0.94 0.03 68 998.3
20191016102113 8 175 0.0 3.2 0.03 0.94 0.03 68 998.3
20191016102014 8 175 0.0 3.2 0.03 0.94 0.03 68 998.3
20191016101913 8 174 0.0 3.2 0.03 0.94 0.03 68 998.3
20191016101812 8 174 0.0 3.2 0.03 0.94 0.03 68 998.3
20191016101713 8 175 0.0 3.2 0.03 0.94 0.03 68 998.3
20191016101613 8 174 0.0 3.2 0.03 0.94 0.03 68 998.2
20191016101513 8 174 0.0 3.2 0.03 0.94 0.03 68 998.2
20191016101313 8 175 0.0 3.2 0.03 0.94 0.03 68 998.2
20191016101214 8 175 0.0 3.2 0.03 0.94 0.03 68 998.1
20191016101113 8 175 0.0 3.2 0.03 0.94 0.03 68 998.2
20191016101013 8 175 0.0 3.2 0.03 0.94 0.03 68 998.2
20191016100913 8 175 0.0 3.2 0.03 0.94 0.03 68 998.2
20191016100813 8 175 0.0 3.2 0.03 0.94 0.03 68 998.2
20191016100712 8 175 0.0 3.2 0.03 0.94 0.03 68 998.2
20191016100613 8 175 0.0 3.2 0.03 0.94 0.03 69 998.2
20191016100513 8 175 0.0 3.2 0.03 0.94 0.03 69 998.2
20191016100413 8 175 0.0 3.2 0.03 0.94 0.03 69 998.2
20191016100313 8 175 0.0 3.2 0.03 0.94 0.03 69 998.3
20191016100213 8 175 0.0 3.2 0.03 0.94 0.03 69 998.3
20191016100113 8 175 0.0 3.2 0.03 0.94 0.03 69 998.3
20191016100014 8 175 0.0 3.2 0.00 0.91 0.00 69 998.3
20191016095912 8 175 0.0 3.2 0.00 0.91 0.00 69 998.3
20191016095813 8 175 0.0 3.2 0.00 0.91 0.00 69 998.3
20191016095713 8 175 0.0 3.2 0.00 0.91 0.00 69 998.3
20191016095613 8 175 0.0 3.2 0.00 0.91 0.00 69 998.3
20191016095514 8 175 0.0 3.2 0.00 0.91 0.00 69 998.3
20191016095413 8 175 0.0 3.2 0.00 0.91 0.00 69 998.3
20191016095313 8 175 0.0 3.2 0.00 0.91 0.00 69 998.3
20191016095212 8 175 0.0 3.2 0.00 0.91 0.00 69 998.3
20191016095113 8 175 0.0 4.8 0.00 0.91 0.00 69 998.3
20191016095013 8 175 0.0 4.8 0.00 0.91 0.00 69 998.3
20191016094912 8 175 0.0 4.8 0.00 0.91 0.00 69 998.3
20191016094813 8 175 0.0 4.8 0.00 0.91 0.00 69 998.3
20191016094713 8 175 0.0 4.8 0.00 0.91 0.00 69 998.3
20191016094612 8 175 0.0 4.8 0.00 0.91 0.00 69 998.3
20191016094513 8 175 0.0 4.8 0.00 0.91 0.00 69 998.3
20191016094413 8 175 0.0 4.8 0.00 0.91 0.00 69 998.3
20191016094313 8 175 0.0 4.8 0.00 0.91 0.00 69 998.3
20191016094212 8 175 0.0 4.8 0.00 0.91 0.00 69 998.3
20191016094113 8 175 0.0 3.2 0.00 0.91 0.00 69 998.3
20191016094013 8 175 0.0 3.2 0.00 0.91 0.00 69 998.3
20191016093913 8 175 0.0 3.2 0.00 0.91 0.00 68 998.3
20191016093812 8 175 0.0 3.2 0.00 0.91 0.00 69 998.3
20191016093713 8 175 0.0 3.2 0.00 0.91 0.00 68 998.3
20191016093613 8 175 0.0 3.2 0.00 0.91 0.00 69 998.3
20191016093512 8 175 0.0 3.2 0.00 0.91 0.00 68 998.3
20191016093413 8 174 0.0 3.2 0.00 0.91 0.00 68 998.3
20191016093313 8 175 0.0 3.2 0.00 0.91 0.00 68 998.3
20191016093212 8 175 0.0 3.2 0.00 0.91 0.00 69 998.3
20191016093112 8 175 0.0 3.2 0.00 0.91 0.00 68 998.2
20191016093014 8 175 0.0 3.2 0.00 0.91 0.00 68 998.3
20191016092912 8 175 0.0 3.2 0.00 0.91 0.00 68 998.3
20191016092813 8 0 0.0 0.0 0.00 0.91 0.00 69 998.2
20191016092713 8 0 0.0 0.0 0.00 0.91 0.00 68 998.2
20191016092612 8 175 0.0 1.6 0.00 0.91 0.00 68 998.2
20191016092513 8 175 0.0 1.6 0.00 0.91 0.00 68 998.2
20191016092412 8 175 0.0 3.2 0.00 0.91 0.00 68 998.2
20191016092312 8 175 0.0 4.8 0.00 0.91 0.00 68 998.3
20191016092213 8 175 0.0 4.8 0.00 0.91 0.00 68 998.3
20191016092113 8 175 0.0 4.8 0.00 0.91 0.00 68 998.3
20191016092013 8 175 0.0 4.8 0.00 0.91 0.00 68 998.3
20191016091913 8 175 0.0 4.8 0.00 0.91 0.00 68 998.3
20191016091813 8 175 1.6 6.4 0.00 0.91 0.00 68 998.2
20191016091712 8 169 1.6 6.4 0.00 0.91 0.00 68 998.2
20191016091613 8 167 1.6 6.4 0.00 0.91 0.00 68 998.2
20191016091513 8 167 1.6 6.4 0.00 0.91 0.00 68 998.2
20191016091412 8 164 1.6 6.4 0.00 0.91 0.00 68 998.2
20191016091313 8 158 1.6 6.4 0.00 0.91 0.00 68 998.2
20191016091213 8 155 1.6 6.4 0.00 0.91 0.00 68 998.2
20191016091113 8 153 1.6 6.4 0.00 0.91 0.00 68 998.1
20191016091013 8 151 1.6 6.4 0.00 0.91 0.00 68 998.1
20191016090913 8 149 1.6 6.4 0.00 0.91 0.00 68 998.1
20191016090812 8 144 1.6 4.8 0.00 0.91 0.00 68 998.1
20191016090712 8 144 1.6 4.8 0.00 0.91 0.00 68 998.1
20191016090613 8 144 1.6 4.8 0.00 0.91 0.00 68 998.1
20191016090512 8 144 1.6 4.8 0.00 0.91 0.00 68 998.1
20191016090412 8 144 1.6 4.8 0.00 0.91 0.00 68 998.2
20191016090313 8 144 1.6 4.8 0.00 0.91 0.00 68 998.2
20191016090213 8 144 0.0 4.8 0.00 0.91 0.00 68 998.2
20191016090112 8 144 0.0 4.8 0.00 0.91 0.00 68 998.2
20191016090014 8 144 0.0 3.2 0.00 0.91 0.00 68 998.2
20191016085912 8 144 0.0 1.6 0.00 0.91 0.00 68 998.2
20191016085813 8 0 0.0 0.0 0.00 0.91 0.00 68 998.3
20191016085713 8 0 0.0 0.0 0.00 0.91 0.00 68 998.3
20191016085613 8 0 0.0 0.0 0.00 0.91 0.00 68 998.3
20191016085513 8 0 0.0 0.0 0.00 0.91 0.00 68 998.3
20191016085412 8 0 0.0 0.0 0.00 0.91 0.00 68 998.3
20191016085313 8 0 0.0 0.0 0.00 0.91 0.00 68 998.3
20191016085213 8 0 0.0 0.0 0.00 0.91 0.00 68 998.3
20191016085112 8 0 0.0 0.0 0.00 0.91 0.00 68 998.3
20191016085013 8 0 0.0 0.0 0.00 0.91 0.00 68 998.4
20191016084913 8 0 0.0 0.0 0.00 0.91 0.00 68 998.4
20191016084812 8 144 0.0 3.2 0.00 0.91 0.00 68 998.4
20191016084713 8 144 0.0 4.8 0.00 0.91 0.00 68 998.4
20191016084613 8 144 1.6 4.8 0.00 0.91 0.00 68 998.3
20191016084512 8 144 1.6 4.8 0.00 0.91 0.00 68 998.4
20191016084413 8 144 1.6 4.8 0.00 0.91 0.00 68 998.4
20191016084313 8 144 1.6 4.8 0.00 0.91 0.00 68 998.4
20191016084213 8 144 1.6 4.8 0.00 0.91 0.00 68 998.4
20191016084112 8 144 1.6 4.8 0.00 0.91 0.00 68 998.3
20191016084013 8 144 1.6 4.8 0.00 0.91 0.00 68 998.4
20191016083913 8 144 1.6 4.8 0.00 0.91 0.00 68 998.4
20191016083813 8 144 3.2 4.8 0.00 0.91 0.00 68 998.3
20191016083713 8 144 1.6 4.8 0.00 0.91 0.00 68 998.4
20191016083613 8 143 1.6 4.8 0.00 0.91 0.00 68 998.4
20191016083514 8 144 1.6 4.8 0.00 0.91 0.00 68 998.4
20191016083414 8 144 1.6 6.4 0.00 0.91 0.00 68 998.4
20191016083314 8 143 3.2 6.4 0.00 0.91 0.00 68 998.4
20191016083213 8 143 3.2 6.4 0.00 0.91 0.00 68 998.4
20191016083112 8 143 3.2 6.4 0.00 0.91 0.00 68 998.4
20191016083014 8 144 3.2 6.4 0.00 0.91 0.00 68 998.4
20191016082912 8 144 3.2 6.4 0.00 0.91 0.00 68 998.4
20191016082813 8 143 3.2 6.4 0.00 0.91 0.00 68 998.4
20191016082713 8 143 3.2 6.4 0.00 0.91 0.00 68 998.4
20191016082613 8 143 3.2 6.4 0.00 0.91 0.00 68 998.4
20191016082513 8 143 3.2 6.4 0.00 0.91 0.00 68 998.4
20191016082413 8 143 3.2 6.4 0.00 0.91 0.00 68 998.4
20191016082312 8 143 3.2 6.4 0.00 0.91 0.00 68 998.4
20191016082213 8 143 3.2 6.4 0.00 0.91 0.00 68 998.3
20191016082113 8 143 3.2 6.4 0.00 0.91 0.00 68 998.4
20191016082013 8 143 3.2 6.4 0.00 0.91 0.00 68 998.4
20191016081913 8 143 3.2 6.4 0.00 0.91 0.00 68 998.3
20191016081812 8 143 3.2 4.8 0.00 0.91 0.00 68 998.4
20191016081713 8 144 3.2 4.8 0.00 0.91 0.00 68 998.3
20191016081613 8 143 1.6 4.8 0.00 0.91 0.00 68 998.3
20191016081513 8 143 3.2 6.4 0.00 0.91 0.00 68 998.3
20191016081412 8 144 3.2 6.4 0.00 0.91 0.00 68 998.3
20191016081312 8 143 1.6 6.4 0.00 0.91 0.00 68 998.3
20191016081212 8 143 1.6 6.4 0.00 0.91 0.00 68 998.3
20191016081113 8 143 1.6 6.4 0.00 0.91 0.00 68 998.3
20191016081012 8 144 1.6 6.4 0.00 0.91 0.00 68 998.3
20191016080913 8 144 1.6 6.4 0.00 0.91 0.00 68 998.3
20191016080812 8 143 1.6 6.4 0.00 0.91 0.00 68 998.3
20191016080712 8 144 3.2 6.4 0.00 0.91 0.00 68 998.4
20191016080613 8 144 3.2 6.4 0.00 0.91 0.00 68 998.4
20191016080513 8 144 3.2 6.4 0.00 0.91 0.00 68 998.4
20191016080412 8 144 3.2 6.4 0.00 0.91 0.00 68 998.4
20191016080313 8 143 3.2 6.4 0.00 0.91 0.00 68 998.4
20191016080212 8 143 3.2 6.4 0.00 0.91 0.00 68 998.4
20191016080113 8 143 4.8 6.4 0.00 0.91 0.00 68 998.3
20191016080014 8 143 4.8 6.4 0.00 0.91 0.00 68 998.4
20191016075913 8 143 4.8 6.4 0.00 0.91 0.00 68 998.4
20191016075813 8 143 4.8 6.4 0.00 0.91 0.00 68 998.5
20191016075712 8 143 4.8 6.4 0.00 0.91 0.00 68 998.5
20191016075613 8 143 3.2 6.4 0.00 0.91 0.00 68 998.4
20191016075513 8 143 3.2 6.4 0.00 0.91 0.00 68 998.3
20191016075413 8 143 3.2 6.4 0.00 0.91 0.00 68 998.3
20191016075312 8 143 3.2 6.4 0.00 0.91 0.00 68 998.4
20191016075212 8 143 3.2 6.4 0.00 0.91 0.00 68 998.4
20191016075113 8 143 3.2 6.4 0.00 0.91 0.00 68 998.5
20191016075012 8 143 3.2 6.4 0.00 0.91 0.00 68 998.5
20191016074913 8 143 3.2 6.4 0.00 0.91 0.00 68 998.5
20191016074812 8 143 3.2 6.4 0.00 0.91 0.00 68 998.4
20191016074713 8 143 3.2 6.4 0.00 0.91 0.00 68 998.4
20191016074613 8 143 3.2 6.4 0.00 0.91 0.00 68 998.5
20191016074513 8 144 1.6 6.4 0.00 0.91 0.00 68 998.4
20191016074413 8 144 1.6 6.4 0.00 0.91 0.00 68 998.5
20191016074313 8 144 1.6 6.4 0.00 0.91 0.00 68 998.5
20191016074212 8 144 1.6 6.4 0.00 0.91 0.00 68 998.5
20191016074113 8 143 0.0 4.8 0.00 0.91 0.00 68 998.5
20191016074013 8 143 0.0 4.8 0.00 0.91 0.00 68 998.5
20191016073912 8 144 0.0 3.2 0.00 0.91 0.00 68 998.5
20191016073813 8 0 0.0 0.0 0.00 0.91 0.00 68 998.5
20191016073713 8 0 0.0 0.0 0.00 0.91 0.00 68 998.5
20191016073612 8 0 0.0 0.0 0.00 0.91 0.00 68 998.5
20191016073512 8 0 0.0 0.0 0.00 0.91 0.00 68 998.5
20191016073413 8 0 0.0 0.0 0.00 0.91 0.00 68 998.5
20191016073313 8 0 0.0 0.0 0.00 0.91 0.00 68 998.5
20191016073212 8 0 0.0 0.0 0.00 0.91 0.00 68 998.5
20191016073113 8 0 0.0 0.0 0.00 0.91 0.00 68 998.5
20191016073014 8 0 0.0 0.0 0.00 0.91 0.00 68 998.5
20191016072913 8 0 0.0 0.0 0.00 0.91 0.00 68 998.4
20191016072813 8 0 0.0 0.0 0.00 0.91 0.00 68 998.5
20191016072712 8 0 0.0 0.0 0.00 0.91 0.00 68 998.5
20191016072613 8 0 0.0 0.0 0.00 0.91 0.00 68 998.5
20191016072513 8 0 0.0 0.0 0.00 0.91 0.00 68 998.5
20191016072413 8 0 0.0 0.0 0.00 0.91 0.00 68 998.5
20191016072313 8 0 0.0 0.0 0.00 0.91 0.00 68 998.5
20191016072212 8 0 0.0 0.0 0.00 0.91 0.00 68 998.5
20191016072113 8 0 0.0 0.0 0.00 0.91 0.00 68 998.6
20191016072013 8 0 0.0 0.0 0.00 0.91 0.00 68 998.6
20191016071912 8 0 0.0 0.0 0.00 0.91 0.00 68 998.6
20191016071812 8 0 0.0 0.0 0.00 0.91 0.00 68 998.6
20191016071713 8 0 0.0 0.0 0.00 0.91 0.00 68 998.6
20191016071612 8 0 0.0 0.0 0.00 0.91 0.00 68 998.6
20191016071513 8 144 0.0 1.6 0.00 0.91 0.00 68 998.6
20191016071413 8 144 0.0 4.8 0.00 0.91 0.00 68 998.6
20191016071312 8 144 0.0 4.8 0.00 0.91 0.00 68 998.7
20191016071213 8 144 0.0 4.8 0.00 0.91 0.00 68 998.7
20191016071113 8 144 0.0 4.8 0.00 0.91 0.00 68 998.7
20191016071012 8 144 0.0 4.8 0.00 0.91 0.00 68 998.7
20191016070913 8 144 0.0 4.8 0.00 0.91 0.00 68 998.7
20191016070813 8 144 0.0 4.8 0.00 0.91 0.00 68 998.7
20191016070713 8 144 0.0 4.8 0.00 0.91 0.00 68 998.7
20191016070612 8 144 0.0 4.8 0.00 0.91 0.00 68 998.7
20191016070513 8 144 0.0 4.8 0.00 0.91 0.00 68 998.7
20191016070412 8 144 0.0 3.2 0.00 0.91 0.00 68 998.7
20191016070312 8 144 0.0 3.2 0.00 0.91 0.00 68 998.7
20191016070213 8 144 0.0 3.2 0.00 0.91 0.00 68 998.7
20191016070113 8 144 0.0 3.2 0.00 0.91 0.00 68 998.8
20191016070015 8 144 0.0 4.8 0.00 0.91 0.00 68 998.8
20191016065913 8 144 0.0 4.8 0.00 0.91 0.00 68 998.8
20191016065812 8 143 0.0 4.8 0.00 0.91 0.00 68 998.8
20191016065713 8 143 0.0 4.8 0.00 0.91 0.00 68 998.8
20191016065614 8 143 0.0 4.8 0.00 0.91 0.00 68 998.8
20191016065513 8 143 0.0 4.8 0.00 0.91 0.00 68 998.8
20191016065413 8 143 0.0 4.8 0.00 0.91 0.00 68 998.8
20191016065312 8 143 0.0 4.8 0.00 0.91 0.00 68 998.8
20191016065213 8 143 0.0 4.8 0.00 0.91 0.00 68 998.9
20191016065113 8 143 0.0 4.8 0.00 0.91 0.00 68 998.9
20191016065012 8 144 0.0 3.2 0.00 0.91 0.00 68 998.9
20191016064913 8 144 0.0 3.2 0.00 0.91 0.00 68 998.9
20191016064812 8 144 0.0 3.2 0.00 0.91 0.00 68 998.9
20191016064713 8 143 0.0 3.2 0.00 0.91 0.00 68 998.9
20191016064613 8 143 0.0 3.2 0.00 0.91 0.00 68 998.9
20191016064513 8 144 0.0 4.8 0.00 0.91 0.00 68 998.9
20191016064413 8 144 0.0 4.8 0.00 0.91 0.00 68 998.9
20191016064312 8 144 0.0 4.8 0.00 0.91 0.00 68 998.9
20191016064212 8 144 0.0 4.8 0.00 0.91 0.00 68 998.9
20191016064112 8 144 0.0 4.8 0.00 0.91 0.00 68 999.0
20191016064013 8 144 0.0 4.8 0.00 0.91 0.00 68 999.0
20191016063912 8 144 0.0 4.8 0.00 0.91 0.00 68 999.0
20191016063812 8 144 0.0 4.8 0.00 0.91 0.00 68 999.0
20191016063713 8 142 1.6 6.4 0.00 0.91 0.00 68 999.0
20191016063613 8 142 1.6 6.4 0.00 0.91 0.00 68 999.0
20191016063513 8 139 1.6 6.4 0.00 0.91 0.00 68 999.0
20191016063413 8 138 1.6 6.4 0.00 0.91 0.00 68 999.0
20191016063313 8 138 1.6 6.4 0.00 0.91 0.00 68 999.0
20191016063212 8 137 1.6 6.4 0.00 0.91 0.00 68 999.0
20191016063112 8 136 1.6 6.4 0.00 0.91 0.00 68 999.0
20191016063015 8 136 1.6 6.4 0.00 0.91 0.00 68 999.0
20191016062912 8 135 1.6 6.4 0.00 0.91 0.00 68 999.0
20191016062813 8 133 3.2 8.0 0.00 0.91 0.00 68 999.0
20191016062713 8 131 3.2 8.0 0.00 0.91 0.00 68 999.0
20191016062613 8 130 3.2 8.0 0.00 0.91 0.00 68 999.1
20191016062513 8 128 3.2 11.3 0.00 0.91 0.00 68 999.1
20191016062413 8 126 4.8 11.3 0.00 0.91 0.00 68 999.1
20191016062313 8 125 4.8 12.9 0.00 0.91 0.00 68 999.0
20191016062213 8 123 4.8 12.9 0.00 0.91 0.00 68 999.1
20191016062113 8 124 6.4 19.3 0.00 0.91 0.00 68 999.1
20191016062012 8 124 6.4 19.3 0.00 0.91 0.00 68 999.1
20191016061913 8 124 8.0 19.3 0.00 0.91 0.00 68 999.1
20191016061813 8 124 8.0 19.3 0.00 0.91 0.00 68 999.1
20191016061712 8 124 8.0 19.3 0.00 0.91 0.00 68 999.1
20191016061613 8 125 9.7 19.3 0.00 0.91 0.00 68 999.1
20191016061513 8 125 8.0 19.3 0.00 0.91 0.00 68 999.1
20191016061413 8 126 9.7 19.3 0.00 0.91 0.00 68 999.1
20191016061313 8 126 9.7 19.3 0.00 0.91 0.00 68 999.1
20191016061212 8 127 9.7 19.3 0.00 0.91 0.00 68 999.1
20191016061113 8 127 9.7 17.7 0.00 0.91 0.00 68 999.2
20191016061013 8 127 8.0 14.5 0.00 0.91 0.00 68 999.2
20191016060912 8 126 8.0 14.5 0.00 0.91 0.00 68 999.3
20191016060813 8 126 8.0 14.5 0.00 0.91 0.00 68 999.3
20191016060712 8 126 8.0 14.5 0.00 0.91 0.00 68 999.3
20191016060612 8 124 8.0 14.5 0.00 0.91 0.00 68 999.3
20191016060513 8 123 8.0 14.5 0.00 0.91 0.00 68 999.3
20191016060413 8 121 8.0 14.5 0.00 0.91 0.00 68 999.3
20191016060313 8 121 8.0 14.5 0.00 0.91 0.00 68 999.3
20191016060213 8 120 6.4 14.5 0.00 0.91 0.00 68 999.4
20191016060112 8 119 8.0 14.5 0.00 0.91 0.00 68 999.4
20191016060016 8 118 6.4 12.9 0.00 0.91 0.00 68 999.4
20191016055913 8 118 6.4 11.3 0.00 0.91 0.00 68 999.4
20191016055812 8 117 6.4 11.3 0.00 0.91 0.00 68 999.4
20191016055713 8 117 6.4 11.3 0.00 0.91 0.00 68 999.5
20191016055613 8 117 6.4 11.3 0.00 0.91 0.00 68 999.5
20191016055513 8 118 6.4 11.3 0.00 0.91 0.00 68 999.4
20191016055412 8 118 6.4 11.3 0.00 0.91 0.00 68 999.5
20191016055313 8 118 6.4 11.3 0.00 0.91 0.00 68 999.5
20191016055213 8 118 6.4 11.3 0.00 0.91 0.00 68 999.5
20191016055113 8 119 6.4 11.3 0.00 0.91 0.00 68 999.5
20191016055012 8 120 6.4 11.3 0.00 0.91 0.00 68 999.5
20191016054913 8 120 6.4 11.3 0.00 0.91 0.00 68 999.5
20191016054812 7 121 6.4 12.9 0.00 0.91 0.00 68 999.5
20191016054713 7 120 6.4 12.9 0.00 0.91 0.00 68 999.5
20191016054612 7 120 8.0 12.9 0.00 0.91 0.00 68 999.5
20191016054512 7 121 8.0 12.9 0.00 0.91 0.00 68 999.5
20191016054413 7 121 8.0 12.9 0.00 0.91 0.00 68 999.5
20191016054313 7 121 8.0 12.9 0.00 0.91 0.00 68 999.5
20191016054212 7 120 8.0 12.9 0.00 0.91 0.00 68 999.5
20191016054112 7 121 8.0 12.9 0.00 0.91 0.00 68 999.5
20191016054013 7 121 8.0 12.9 0.00 0.91 0.00 68 999.5
20191016053912 7 122 8.0 12.9 0.00 0.91 0.00 68 999.5
20191016053812 7 122 8.0 12.9 0.00 0.91 0.00 68 999.5
20191016053713 7 123 8.0 12.9 0.00 0.91 0.00 68 999.5
20191016053612 7 123 8.0 12.9 0.00 0.91 0.00 68 999.5
20191016053512 7 123 8.0 12.9 0.00 0.91 0.00 68 999.5
20191016053413 7 122 8.0 12.9 0.00 0.91 0.00 68 999.6
20191016053312 7 122 8.0 14.5 0.00 0.91 0.00 68 999.6
20191016053212 7 122 9.7 14.5 0.00 0.91 0.00 68 999.5
20191016053113 7 122 9.7 14.5 0.00 0.91 0.00 68 999.5
20191016053014 7 121 9.7 14.5 0.00 0.91 0.00 68 999.5
20191016052913 7 120 9.7 14.5 0.00 0.91 0.00 68 999.5
20191016052812 7 119 9.7 14.5 0.00 0.91 0.00 68 999.5
20191016052712 7 119 9.7 14.5 0.00 0.91 0.00 68 999.5
20191016052613 7 118 9.7 14.5 0.00 0.91 0.00 68 999.5
20191016052512 7 118 9.7 14.5 0.00 0.91 0.00 68 999.5
20191016052413 7 117 9.7 14.5 0.00 0.91 0.00 68 999.5
20191016052313 7 117 9.7 14.5 0.00 0.91 0.00 68 999.5
20191016052212 7 117 9.7 14.5 0.00 0.91 0.00 68 999.5
20191016052112 7 117 8.0 14.5 0.00 0.91 0.00 68 999.5
20191016052013 7 116 8.0 14.5 0.00 0.91 0.00 68 999.5
20191016051912 7 116 8.0 14.5 0.00 0.91 0.00 68 999.5
20191016051812 7 115 6.4 12.9 0.00 0.91 0.00 68 999.5
20191016051712 7 114 6.4 12.9 0.00 0.91 0.00 68 999.6
20191016051613 7 114 6.4 12.9 0.00 0.91 0.00 68 999.6
20191016051512 7 113 6.4 12.9 0.00 0.91 0.00 68 999.6
20191016051413 7 114 6.4 12.9 0.00 0.91 0.00 68 999.6
20191016051313 7 113 6.4 12.9 0.00 0.91 0.00 68 999.6
20191016051212 7 112 6.4 12.9 0.00 0.91 0.00 68 999.6
20191016051113 7 112 8.0 12.9 0.00 0.91 0.00 68 999.6
20191016051013 7 113 8.0 12.9 0.00 0.91 0.00 68 999.7
20191016050912 7 113 8.0 12.9 0.00 0.91 0.00 68 999.7
20191016050813 7 113 8.0 12.9 0.00 0.91 0.00 68 999.7
20191016050713 7 114 8.0 12.9 0.00 0.91 0.00 68 999.7
20191016050613 7 115 8.0 12.9 0.00 0.91 0.00 68 999.7
20191016050512 7 116 8.0 12.9 0.00 0.91 0.00 68 999.7
20191016050413 7 116 8.0 12.9 0.00 0.91 0.00 68 999.7
20191016050312 7 118 6.4 12.9 0.00 0.91 0.00 68 999.8
20191016050212 7 120 6.4 12.9 0.00 0.91 0.00 68 999.8
20191016050113 7 120 6.4 11.3 0.00 0.91 0.00 68 999.8
20191016050015 7 122 6.4 11.3 0.00 0.91 0.00 68 999.9
20191016045912 7 123 6.4 11.3 0.00 0.91 0.00 68 999.9
20191016045813 7 124 6.4 12.9 0.00 0.91 0.00 68 999.9
20191016045712 7 124 6.4 12.9 0.00 0.91 0.00 68 1000.0
20191016045612 7 122 6.4 12.9 0.03 0.91 0.00 68 1000.0
20191016045513 7 122 6.4 12.9 0.03 0.91 0.00 68 1000.0
20191016045412 7 122 8.0 12.9 0.03 0.91 0.00 68 1000.0
20191016045312 7 122 6.4 12.9 0.03 0.91 0.00 68 1000.0
20191016045213 7 121 6.4 12.9 0.03 0.91 0.00 68 1000.1
20191016045113 7 122 6.4 12.9 0.03 0.91 0.00 68 1000.1
20191016045013 7 122 6.4 12.9 0.03 0.91 0.00 68 1000.0
20191016044912 7 123 6.4 12.9 0.03 0.91 0.00 68 1000.1
20191016044812 7 122 6.4 12.9 0.03 0.91 0.00 68 1000.1
20191016044712 7 123 6.4 12.9 0.03 0.91 0.00 68 1000.1
20191016044613 7 125 6.4 12.9 0.03 0.91 0.00 68 1000.2
20191016044513 7 125 6.4 12.9 0.03 0.91 0.00 68 1000.2
20191016044412 7 125 6.4 12.9 0.03 0.91 0.00 68 1000.2
20191016044312 7 124 6.4 12.9 0.03 0.91 0.00 68 1000.3
20191016044212 7 123 6.4 12.9 0.03 0.91 0.00 68 1000.3
20191016044112 7 122 6.4 17.7 0.03 0.91 0.00 68 1000.2
20191016044013 7 121 8.0 17.7 0.03 0.91 0.00 68 1000.3
20191016043912 7 119 6.4 17.7 0.03 0.91 0.00 68 1000.3
20191016043812 7 117 8.0 17.7 0.05 0.91 0.00 68 1000.3
20191016043712 7 116 8.0 17.7 0.05 0.91 0.00 68 1000.4
20191016043612 7 113 8.0 17.7 0.05 0.91 0.00 68 1000.4
20191016043512 7 110 8.0 17.7 0.05 0.91 0.00 68 1000.4
20191016043413 7 108 8.0 17.7 0.05 0.91 0.00 68 1000.4
20191016043313 7 108 8.0 17.7 0.05 0.91 0.00 68 1000.4
20191016043212 7 105 8.0 17.7 0.05 0.91 0.00 68 1000.4
20191016043114 7 102 8.0 16.1 0.05 0.91 0.00 68 1000.4
20191016043015 7 100 6.4 11.3 0.05 0.91 0.00 68 1000.4
20191016042912 7 99 6.4 11.3 0.05 0.91 0.00 68 1000.4
20191016042812 7 99 8.0 11.3 0.05 0.91 0.00 68 1000.5
20191016042712 7 98 8.0 12.9 0.05 0.91 0.00 68 1000.5
20191016042613 7 100 8.0 12.9 0.05 0.91 0.00 68 1000.6
20191016042512 7 101 8.0 12.9 0.05 0.91 0.00 68 1000.6
20191016042412 7 102 8.0 12.9 0.05 0.91 0.00 68 1000.6
20191016042312 7 100 8.0 12.9 0.05 0.91 0.00 68 1000.6
20191016042212 7 101 8.0 12.9 0.05 0.91 0.00 68 1000.6
20191016042113 7 105 8.0 12.9 0.05 0.91 0.00 68 1000.7
20191016042013 7 105 8.0 12.9 0.05 0.91 0.00 68 1000.7
20191016041913 7 107 8.0 12.9 0.05 0.91 0.00 68 1000.7
20191016041813 7 108 8.0 12.9 0.05 0.91 0.00 68 1000.7
20191016041712 7 107 6.4 12.9 0.05 0.91 0.00 68 1000.7
20191016041612 7 107 6.4 12.9 0.05 0.91 0.00 68 1000.8
20191016041512 7 107 6.4 12.9 0.05 0.91 0.00 68 1000.8
20191016041413 7 108 6.4 12.9 0.05 0.91 0.00 68 1000.8
20191016041312 7 110 6.4 12.9 0.05 0.91 0.00 68 1000.8
20191016041212 7 109 6.4 12.9 0.05 0.91 0.00 68 1000.8
20191016041113 7 106 6.4 12.9 0.05 0.91 0.00 68 1000.9
20191016041013 7 105 6.4 14.5 0.05 0.91 0.00 68 1000.9
20191016040912 7 102 6.4 14.5 0.05 0.91 0.00 68 1000.8
20191016040813 7 100 6.4 14.5 0.05 0.91 0.00 68 1000.8
20191016040713 7 101 6.4 14.5 0.05 0.91 0.00 68 1000.9
20191016040613 7 101 6.4 14.5 0.05 0.91 0.00 68 1000.9
20191016040512 7 100 8.0 14.5 0.05 0.91 0.00 68 1000.9
20191016040412 7 99 8.0 14.5 0.05 0.91 0.00 68 1000.9
20191016040313 7 97 8.0 14.5 0.05 0.91 0.00 68 1000.9
20191016040212 7 94 8.0 14.5 0.05 0.91 0.00 68 1001.0
20191016040112 7 94 8.0 14.5 0.05 0.91 0.00 68 1001.0
20191016040019 7 93 8.0 14.5 0.05 0.91 0.00 68 1001.0
20191016035912 7 92 9.7 14.5 0.05 0.91 0.91 68 1001.0
20191016035813 7 92 9.7 14.5 0.05 0.91 0.91 68 1001.0
20191016035712 7 92 8.0 14.5 0.03 0.89 0.89 68 1001.0
20191016035612 7 91 9.7 14.5 0.03 0.89 0.89 68 1001.0
20191016035513 7 92 8.0 14.5 0.03 0.89 0.89 68 1001.0
20191016035412 7 93 8.0 14.5 0.03 0.89 0.89 68 1001.0
20191016035313 7 95 8.0 14.5 0.03 0.89 0.89 68 1001.0
20191016035213 7 96 8.0 14.5 0.03 0.89 0.89 68 1001.1
20191016035112 7 96 8.0 12.9 0.03 0.89 0.89 68 1001.1
20191016035012 7 97 8.0 12.9 0.03 0.89 0.89 68 1001.1
20191016034912 7 100 8.0 11.3 0.03 0.89 0.89 68 1001.2
20191016034813 7 101 8.0 11.3 0.03 0.89 0.89 68 1001.2
20191016034712 7 101 8.0 12.9 0.03 0.89 0.89 68 1001.2
20191016034612 7 101 8.0 14.5 0.03 0.89 0.89 68 1001.2
20191016034513 7 99 8.0 14.5 0.03 0.89 0.89 68 1001.3
20191016034412 7 98 8.0 14.5 0.03 0.89 0.89 68 1001.2
20191016034312 7 98 8.0 14.5 0.03 0.89 0.89 68 1001.3
20191016034213 7 98 8.0 14.5 0.03 0.89 0.89 68 1001.2
20191016034112 7 98 8.0 14.5 0.03 0.89 0.89 68 1001.3
20191016034012 7 96 8.0 14.5 0.03 0.89 0.89 68 1001.3
20191016033913 7 96 9.7 14.5 0.03 0.89 0.89 68 1001.3
20191016033812 7 94 9.7 16.1 0.00 0.86 0.86 68 1001.3
20191016033712 7 95 9.7 16.1 0.00 0.86 0.86 68 1001.4
20191016033613 7 96 9.7 16.1 0.00 0.86 0.86 68 1001.4
20191016033512 7 96 9.7 16.1 0.00 0.86 0.86 68 1001.4
20191016033412 7 96 9.7 16.1 0.00 0.86 0.86 68 1001.4
20191016033313 7 97 9.7 16.1 0.00 0.86 0.86 68 1001.4
20191016033212 7 97 9.7 16.1 0.00 0.86 0.86 68 1001.4
20191016033112 7 96 9.7 16.1 0.00 0.86 0.86 68 1001.4
20191016033014 7 98 9.7 16.1 0.00 0.86 0.86 68 1001.5
20191016032912 7 99 9.7 16.1 0.00 0.86 0.86 68 1001.5
20191016032812 7 102 8.0 14.5 0.00 0.86 0.86 68 1001.5
20191016032713 7 102 8.0 14.5 0.00 0.86 0.86 68 1001.5
20191016032613 7 101 8.0 14.5 0.00 0.86 0.86 68 1001.5
20191016032512 7 102 8.0 14.5 0.00 0.86 0.86 68 1001.5
20191016032412 7 101 8.0 14.5 0.00 0.86 0.86 68 1001.5
20191016032313 7 100 9.7 14.5 0.00 0.86 0.86 68 1001.6
20191016032212 7 99 9.7 14.5 0.00 0.86 0.86 68 1001.6
20191016032112 7 99 9.7 14.5 0.00 0.86 0.86 68 1001.5
20191016032013 7 100 9.7 14.5 0.00 0.86 0.86 68 1001.6
20191016031912 7 100 9.7 14.5 0.00 0.86 0.86 68 1001.6
20191016031813 7 99 8.0 14.5 0.00 0.86 0.86 68 1001.6
20191016031712 7 100 8.0 14.5 0.00 0.86 0.86 68 1001.6
20191016031612 7 100 8.0 14.5 0.00 0.86 0.86 68 1001.7
20191016031513 7 98 8.0 14.5 0.00 0.86 0.86 68 1001.6
20191016031412 7 99 8.0 14.5 0.00 0.86 0.86 68 1001.7
20191016031312 7 100 8.0 14.5 0.00 0.86 0.86 68 1001.7
20191016031213 7 99 8.0 14.5 0.00 0.86 0.86 68 1001.7
20191016031112 7 101 8.0 14.5 0.00 0.86 0.86 68 1001.7
20191016031012 7 102 8.0 14.5 0.00 0.86 0.86 68 1001.8
20191016030913 7 102 8.0 14.5 0.00 0.86 0.86 68 1001.9
20191016030812 7 101 8.0 14.5 0.00 0.86 0.86 68 1001.9
20191016030713 7 100 8.0 14.5 0.00 0.86 0.86 68 1001.8
20191016030613 7 102 8.0 14.5 0.00 0.86 0.86 68 1001.9
20191016030512 7 103 9.7 14.5 0.00 0.86 0.86 68 1001.9
20191016030413 7 105 9.7 16.1 0.00 0.86 0.86 68 1001.9
20191016030313 7 105 9.7 16.1 0.00 0.86 0.86 68 1002.0
20191016030212 7 106 9.7 16.1 0.00 0.86 0.86 68 1001.9
20191016030112 7 104 9.7 16.1 0.00 0.86 0.86 68 1001.9
20191016030014 7 102 8.0 16.1 0.00 0.86 0.86 68 1001.9
20191016025913 7 101 8.0 16.1 0.00 0.86 0.86 68 1001.8
20191016025812 7 102 8.0 16.1 0.00 0.86 0.86 68 1001.8
20191016025712 7 103 9.7 16.1 0.00 0.86 0.86 68 1001.8
20191016025612 7 101 9.7 17.7 0.00 0.86 0.86 68 1001.9
20191016025513 7 101 9.7 17.7 0.00 0.86 0.86 68 1001.8
20191016025412 7 103 9.7 17.7 0.00 0.86 0.86 68 1001.8
20191016025312 7 102 9.7 17.7 0.00 0.86 0.86 68 1001.8
20191016025213 7 104 9.7 17.7 0.00 0.86 0.86 68 1001.8
20191016025112 7 107 9.7 17.7 0.00 0.86 0.86 68 1001.8
20191016025012 7 107 9.7 17.7 0.00 0.86 0.86 68 1001.8
20191016024913 7 107 9.7 17.7 0.00 0.86 0.86 68 1001.8
20191016024812 7 104 11.3 17.7 0.00 0.86 0.86 68 1001.9
20191016024712 7 103 11.3 17.7 0.00 0.86 0.86 68 1001.9
20191016024612 7 103 9.7 16.1 0.00 0.86 0.86 68 1001.9
20191016024512 7 102 9.7 16.1 0.00 0.86 0.86 68 1001.9
20191016024412 7 98 9.7 16.1 0.00 0.86 0.86 68 1001.9
20191016024312 7 99 9.7 16.1 0.00 0.86 0.86 68 1001.9
20191016024212 7 97 9.7 16.1 0.00 0.86 0.86 68 1001.9
20191016024112 7 94 8.0 16.1 0.00 0.86 0.86 68 1001.9
20191016024012 7 93 8.0 16.1 0.00 0.86 0.86 68 1001.9
20191016023913 7 92 8.0 16.1 0.00 0.86 0.86 68 1001.9
20191016023812 7 92 6.4 14.5 0.00 0.86 0.86 68 1002.0
20191016023712 7 92 6.4 14.5 0.00 0.86 0.86 68 1001.9
20191016023613 7 90 6.4 12.9 0.00 0.86 0.86 68 1001.9
20191016023512 7 90 6.4 12.9 0.00 0.86 0.86 68 1002.0
20191016023412 7 90 4.8 12.9 0.00 0.86 0.86 68 1002.1
20191016023313 7 87 4.8 12.9 0.00 0.86 0.86 68 1002.1
20191016023212 7 85 4.8 12.9 0.00 0.86 0.86 68 1002.2
20191016023112 7 84 4.8 12.9 0.00 0.86 0.86 68 1002.1
20191016023014 7 85 6.4 16.1 0.00 0.86 0.86 68 1002.1
20191016022912 7 86 6.4 16.1 0.00 0.86 0.86 68 1002.2
20191016022812 7 89 6.4 16.1 0.00 0.86 0.86 68 1002.2
20191016022712 7 90 6.4 16.1 0.00 0.86 0.86 68 1002.1
20191016022613 7 92 6.4 16.1 0.00 0.86 0.86 68 1002.1
20191016022512 7 95 6.4 16.1 0.00 0.86 0.86 68 1002.1
20191016022412 7 98 8.0 16.1 0.00 0.86 0.86 68 1002.1
20191016022312 7 99 8.0 16.1 0.00 0.86 0.86 68 1002.2
20191016022212 7 102 8.0 16.1 0.00 0.86 0.86 68 1002.2
20191016022112 7 106 8.0 19.3 0.00 0.86 0.86 68 1002.3
20191016022013 7 108 8.0 20.9 0.00 0.86 0.86 68 1002.3
20191016021912 7 109 9.7 20.9 0.00 0.86 0.86 68 1002.3
20191016021812 7 108 9.7 20.9 0.00 0.86 0.86 68 1002.4
20191016021712 7 106 9.7 20.9 0.00 0.86 0.86 68 1002.4
20191016021612 7 105 9.7 20.9 0.00 0.86 0.86 68 1002.4
20191016021512 7 106 9.7 20.9 0.00 0.86 0.86 68 1002.4
20191016021412 7 104 9.7 20.9 0.00 0.86 0.86 68 1002.4
20191016021312 7 104 9.7 20.9 0.00 0.86 0.86 68 1002.4
20191016021212 7 103 9.7 20.9 0.00 0.86 0.86 68 1002.3
20191016021112 7 100 9.7 20.9 0.00 0.86 0.86 68 1002.3
20191016021012 7 99 9.7 20.9 0.00 0.86 0.86 68 1002.3
20191016020912 7 98 9.7 20.9 0.00 0.86 0.86 68 1002.3
20191016020812 7 97 9.7 20.9 0.00 0.86 0.86 68 1002.3
20191016020712 7 96 11.3 20.9 0.00 0.86 0.86 68 1002.2
20191016020612 7 94 11.3 20.9 0.00 0.86 0.86 68 1002.2
20191016020512 6 91 11.3 20.9 0.00 0.86 0.86 68 1002.2
20191016020412 6 90 11.3 20.9 0.00 0.86 0.86 68 1002.1
20191016020312 6 89 11.3 20.9 0.00 0.86 0.86 68 1002.1
20191016020212 6 88 11.3 20.9 0.00 0.86 0.86 68 1002.1
20191016020112 6 87 12.9 20.9 0.00 0.86 0.86 68 1002.2
20191016020014 6 87 12.9 20.9 0.00 0.86 0.86 68 1002.3
20191016015912 6 85 11.3 20.9 0.00 0.86 0.86 68 1002.2
20191016015812 6 86 11.3 16.1 0.00 0.86 0.86 68 1002.3
20191016015712 6 86 11.3 16.1 0.00 0.86 0.86 68 1002.3
20191016015612 6 88 11.3 17.7 0.00 0.86 0.86 68 1002.3
20191016015512 6 89 11.3 17.7 0.00 0.86 0.86 68 1002.3
20191016015412 6 90 11.3 17.7 0.00 0.86 0.86 68 1002.3
20191016015312 6 90 11.3 17.7 0.00 0.86 0.86 68 1002.4
20191016015212 6 91 11.3 17.7 0.00 0.86 0.86 68 1002.4
20191016015112 6 93 11.3 17.7 0.00 0.86 0.86 68 1002.5
20191016015013 6 94 11.3 17.7 0.00 0.86 0.86 68 1002.5
20191016014912 6 95 11.3 17.7 0.00 0.86 0.86 68 1002.5
20191016014812 6 96 11.3 17.7 0.00 0.86 0.86 68 1002.5
20191016014712 6 99 11.3 17.7 0.00 0.86 0.86 67 1002.5
20191016014612 6 100 11.3 17.7 0.00 0.86 0.86 67 1002.6
20191016014513 6 103 11.3 17.7 0.00 0.86 0.86 67 1002.6
20191016014412 6 106 11.3 17.7 0.00 0.86 0.86 67 1002.7
20191016014312 6 107 11.3 17.7 0.00 0.86 0.86 67 1002.7
20191016014212 6 106 11.3 16.1 0.00 0.86 0.86 67 1002.6
20191016014112 6 105 11.3 16.1 0.00 0.86 0.86 67 1002.6
20191016014012 6 103 11.3 22.5 0.00 0.86 0.86 67 1002.6
20191016013912 6 100 11.3 22.5 0.00 0.86 0.86 67 1002.6
20191016013813 6 97 12.9 24.1 0.00 0.86 0.86 67 1002.8
20191016013712 6 95 12.9 24.1 0.00 0.86 0.86 67 1002.8
20191016013612 6 91 12.9 24.1 0.00 0.86 0.86 67 1002.8
20191016013512 6 90 14.5 24.1 0.00 0.86 0.86 67 1002.8
20191016013412 6 88 14.5 24.1 0.00 0.86 0.86 67 1002.7
20191016013312 6 87 14.5 24.1 0.00 0.86 0.86 67 1002.8
20191016013212 6 89 16.1 24.1 0.00 0.86 0.86 67 1002.6
20191016013112 6 88 16.1 24.1 0.00 0.86 0.86 67 1002.8
20191016013014 6 90 16.1 24.1 0.00 0.86 0.86 67 1002.8
20191016012912 6 90 16.1 24.1 0.03 0.86 0.86 67 1002.8
20191016012812 6 90 16.1 24.1 0.03 0.86 0.86 67 1002.8
20191016012712 6 90 16.1 25.7 0.03 0.86 0.86 67 1002.8
20191016012612 6 89 16.1 25.7 0.03 0.86 0.86 67 1002.9
20191016012512 6 88 16.1 25.7 0.03 0.86 0.86 67 1002.9
20191016012412 6 89 16.1 25.7 0.03 0.86 0.86 67 1002.9
20191016012312 6 90 16.1 25.7 0.03 0.86 0.86 67 1002.8
20191016012214 6 89 16.1 25.7 0.03 0.86 0.86 68 1002.8
20191016012112 6 88 16.1 25.7 0.03 0.86 0.86 68 1002.9
20191016012012 6 87 16.1 25.7 0.03 0.86 0.86 68 1002.9
20191016011912 6 86 16.1 25.7 0.05 0.86 0.86 68 1002.9
20191016011813 6 85 14.5 25.7 0.05 0.86 0.86 68 1003.0
20191016011713 6 86 14.5 25.7 0.05 0.86 0.86 68 1003.0
20191016011613 6 86 14.5 25.7 0.05 0.86 0.86 68 1003.0
20191016011513 6 87 14.5 25.7 0.05 0.86 0.86 68 1003.0
20191016011412 6 86 12.9 25.7 0.08 0.86 0.86 68 1003.1
20191016011312 6 84 12.9 25.7 0.08 0.86 0.86 68 1003.1
20191016011212 6 83 12.9 22.5 0.08 0.86 0.86 68 1003.1
20191016011112 6 84 12.9 22.5 0.10 0.86 0.86 68 1003.1
20191016011012 6 85 12.9 22.5 0.10 0.86 0.86 68 1003.1
20191016010912 6 87 12.9 22.5 0.13 0.86 0.86 68 1003.2
20191016010813 6 89 12.9 22.5 0.13 0.86 0.86 68 1003.2
20191016010712 6 90 12.9 22.5 0.15 0.86 0.86 68 1003.2
20191016010612 6 90 12.9 19.3 0.18 0.86 0.86 68 1003.2
20191016010512 6 92 12.9 19.3 0.20 0.86 0.86 68 1003.2
20191016010412 6 91 12.9 20.9 0.20 0.86 0.86 68 1003.2
20191016010312 6 92 12.9 20.9 0.20 0.86 0.86 68 1003.2
20191016010212 6 92 12.9 20.9 0.23 0.86 0.86 68 1003.3
20191016010112 6 91 12.9 20.9 0.23 0.86 0.86 68 1003.3
20191016010014 6 92 11.3 20.9 0.25 0.86 0.86 68 1003.3
20191016005912 6 93 11.3 20.9 0.28 0.86 0.86 68 1003.2
20191016005812 6 92 11.3 20.9 0.33 0.86 0.86 68 1003.3
20191016005711 6 95 11.3 20.9 0.33 0.86 0.86 68 1003.4
20191016005612 6 97 11.3 20.9 0.33 0.86 0.86 68 1003.3
20191016005512 6 95 11.3 20.9 0.33 0.86 0.86 68 1003.3
20191016005412 6 94 11.3 20.9 0.33 0.86 0.86 68 1003.3
20191016005312 6 92 11.3 22.5 0.33 0.86 0.86 68 1003.2
20191016005212 6 90 12.9 25.7 0.33 0.86 0.86 68 1003.3
20191016005112 6 89 12.9 25.7 0.33 0.86 0.86 68 1003.3
20191016005012 6 86 12.9 25.7 0.33 0.86 0.86 68 1003.4
20191016004912 6 83 14.5 25.7 0.33 0.86 0.86 68 1003.4
20191016004813 6 81 14.5 25.7 0.33 0.86 0.86 68 1003.5
20191016004712 6 78 14.5 25.7 0.33 0.86 0.86 68 1003.4
20191016004612 6 77 16.1 25.7 0.33 0.86 0.86 68 1003.4
20191016004513 6 76 16.1 25.7 0.33 0.86 0.86 68 1003.2
20191016004412 6 77 16.1 25.7 0.33 0.86 0.86 68 1003.2
20191016004312 6 78 16.1 25.7 0.33 0.86 0.86 68 1003.1
20191016004212 6 81 16.1 25.7 0.33 0.86 0.86 68 1003.2
20191016004112 6 82 16.1 25.7 0.33 0.86 0.86 68 1003.4
20191016004012 6 84 16.1 25.7 0.33 0.86 0.86 68 1003.4
20191016003912 6 86 16.1 25.7 0.33 0.86 0.86 68 1003.4
20191016003812 6 86 16.1 25.7 0.33 0.86 0.86 68 1003.4
20191016003712 6 86 16.1 25.7 0.33 0.86 0.86 68 1003.5
20191016003612 6 87 14.5 25.7 0.33 0.86 0.86 68 1003.5
20191016003512 6 88 14.5 25.7 0.33 0.86 0.86 68 1003.5
20191016003412 6 88 14.5 25.7 0.36 0.86 0.86 68 1003.5
20191016003312 6 88 14.5 22.5 0.36 0.86 0.86 68 1003.6
20191016003212 6 87 14.5 20.9 0.36 0.86 0.86 68 1003.6
20191016003112 6 89 14.5 22.5 0.36 0.86 0.86 68 1003.7
20191016003013 6 88 14.5 22.5 0.33 0.84 0.84 68 1003.6
20191016002912 6 87 14.5 22.5 0.33 0.84 0.84 68 1003.6
20191016002812 6 87 16.1 24.1 0.33 0.84 0.84 68 1003.7
20191016002712 6 87 16.1 24.1 0.36 0.84 0.84 68 1003.7
20191016002612 6 86 16.1 24.1 0.36 0.84 0.84 68 1003.8
20191016002512 6 87 16.1 24.1 0.36 0.84 0.84 68 1003.7
20191016002412 6 86 16.1 24.1 0.36 0.84 0.84 68 1003.8
20191016002312 6 87 16.1 24.1 0.36 0.84 0.84 68 1003.8
20191016002212 6 87 16.1 24.1 0.38 0.84 0.84 68 1003.9
20191016002112 6 86 16.1 24.1 0.38 0.84 0.84 68 1003.9
20191016002012 6 86 16.1 24.1 0.36 0.81 0.81 68 1003.9
20191016001912 6 86 16.1 24.1 0.36 0.81 0.81 68 1003.9
20191016001812 6 86 16.1 22.5 0.36 0.81 0.81 68 1003.9
20191016001712 6 87 16.1 22.5 0.36 0.81 0.81 68 1003.9
20191016001612 6 87 16.1 22.5 0.36 0.81 0.81 68 1004.0
20191016001512 6 86 14.5 22.5 0.36 0.81 0.81 68 1004.0
20191016001413 6 87 14.5 22.5 0.33 0.79 0.79 68 1004.1
20191016001312 6 87 14.5 22.5 0.33 0.79 0.79 68 1004.1
20191016001212 6 87 14.5 22.5 0.33 0.79 0.79 68 1004.2
20191016001112 6 87 12.9 20.9 0.30 0.76 0.76 68 1004.2
20191016001012 6 85 12.9 20.9 0.30 0.76 0.76 68 1004.3
20191016000912 6 85 12.9 20.9 0.28 0.74 0.74 68 1004.3
20191016000812 6 85 12.9 20.9 0.25 0.71 0.71 68 1004.6
20191016000712 6 87 12.9 20.9 0.25 0.71 0.71 68 1004.5
20191016000612 6 87 11.3 19.3 0.23 0.69 0.69 68 1004.7
20191016000512 6 87 11.3 19.3 0.20 0.66 0.66 68 1004.7
20191016000412 6 87 11.3 19.3 0.20 0.66 0.66 68 1004.8
20191016000312 6 86 11.3 20.9 0.20 0.66 0.66 68 1004.8
20191016000212 6 87 11.3 20.9 0.18 0.64 0.64 68 1004.8
20191016000112 6 86 11.3 20.9 0.15 0.61 0.61 68 1004.8
20191016000014 6 87 11.3 20.9 0.13 0.58 0.58 68 1004.9
20191015235911 6 86 11.3 20.9 0.10 0.56 0.56 68 1005.0
20191015235812 6 87 11.3 20.9 0.08 0.53 0.53 68 1005.1
20191015235712 6 86 11.3 27.4 0.08 0.53 0.53 68 1005.0
20191015235612 6 86 12.9 27.4 0.08 0.53 0.53 68 1005.0
20191015235512 6 85 12.9 27.4 0.08 0.53 0.53 68 1004.9
20191015235412 6 85 12.9 27.4 0.08 0.53 0.53 68 1004.9
20191015235312 6 85 12.9 27.4 0.08 0.53 0.53 68 1004.8
20191015235212 6 84 12.9 27.4 0.08 0.53 0.53 68 1004.8
20191015235112 6 85 14.5 27.4 0.08 0.53 0.53 68 1004.7
20191015235013 6 86 14.5 27.4 0.08 0.53 0.53 68 1004.6
20191015234912 6 88 16.1 27.4 0.08 0.53 0.53 68 1004.5
20191015234812 6 87 16.1 27.4 0.08 0.53 0.53 68 1004.4
20191015234712 6 85 16.1 24.1 0.08 0.53 0.53 68 1004.3
20191015234612 6 85 16.1 24.1 0.08 0.53 0.53 68 1004.2
20191015234512 6 85 16.1 24.1 0.08 0.53 0.53 68 1004.3
20191015234412 6 85 16.1 24.1 0.08 0.53 0.53 68 1004.3
20191015234312 6 84 17.7 25.7 0.08 0.53 0.53 68 1004.3
20191015234212 6 84 17.7 25.7 0.08 0.53 0.53 68 1004.3
20191015234112 6 82 17.7 25.7 0.08 0.53 0.53 68 1004.2
20191015234012 6 81 17.7 25.7 0.08 0.53 0.53 68 1004.2
20191015233912 6 79 17.7 25.7 0.08 0.53 0.53 68 1004.1
20191015233811 6 79 17.7 25.7 0.08 0.53 0.53 68 1004.1
20191015233712 6 79 17.7 25.7 0.08 0.53 0.53 68 1004.1
20191015233612 6 79 19.3 25.7 0.08 0.53 0.53 68 1004.1
20191015233512 6 78 19.3 27.4 0.08 0.53 0.53 68 1004.1
20191015233412 6 79 19.3 27.4 0.05 0.51 0.51 68 1004.1
20191015233312 6 79 17.7 27.4 0.05 0.51 0.51 68 1004.0
20191015233212 6 81 17.7 27.4 0.05 0.51 0.51 68 1004.1
20191015233111 6 81 17.7 27.4 0.05 0.51 0.51 68 1004.2
20191015233013 6 84 17.7 27.4 0.05 0.51 0.51 68 1004.5
20191015232912 6 85 19.3 27.4 0.08 0.51 0.51 68 1004.5
20191015232811 6 85 19.3 27.4 0.08 0.51 0.51 68 1004.5
20191015232712 6 86 17.7 27.4 0.05 0.48 0.48 68 1004.5
20191015232612 6 88 17.7 27.4 0.05 0.48 0.48 68 1004.6
20191015232512 6 89 17.7 27.4 0.08 0.48 0.48 68 1004.6
20191015232411 6 89 17.7 27.4 0.08 0.48 0.48 68 1004.7
20191015232312 6 90 17.7 27.4 0.05 0.46 0.46 68 1004.6
20191015232211 6 90 17.7 27.4 0.05 0.46 0.46 68 1004.6
20191015232112 6 91 17.7 27.4 0.05 0.46 0.46 68 1004.6
20191015232012 6 90 17.7 25.7 0.05 0.46 0.46 68 1004.6
20191015231912 6 90 16.1 24.1 0.05 0.46 0.46 68 1004.6
20191015231812 6 90 16.1 24.1 0.05 0.46 0.46 68 1004.6
20191015231712 6 90 16.1 24.1 0.05 0.46 0.46 68 1004.7
20191015231612 6 90 14.5 22.5 0.05 0.46 0.46 68 1004.8
20191015231512 6 91 14.5 22.5 0.05 0.46 0.46 68 1004.9
20191015231412 6 92 14.5 22.5 0.05 0.46 0.46 68 1005.0
20191015231312 6 90 14.5 22.5 0.05 0.46 0.46 68 1005.1
20191015231212 6 89 14.5 22.5 0.05 0.46 0.46 68 1005.0
20191015231112 6 89 14.5 22.5 0.05 0.46 0.46 68 1005.0
20191015231012 6 90 14.5 22.5 0.05 0.46 0.46 68 1005.1
20191015230912 6 91 14.5 22.5 0.05 0.46 0.46 68 1005.1
20191015230812 6 92 16.1 24.1 0.05 0.46 0.46 68 1005.2
20191015230712 6 92 16.1 25.7 0.08 0.46 0.46 68 1005.2
20191015230612 6 91 16.1 25.7 0.08 0.46 0.46 68 1005.2
20191015230512 6 90 16.1 25.7 0.08 0.46 0.46 68 1005.2
20191015230412 6 90 16.1 25.7 0.08 0.46 0.46 68 1005.1
20191015230311 6 90 16.1 25.7 0.10 0.46 0.46 68 1005.2
20191015230212 6 90 16.1 25.7 0.10 0.46 0.46 68 1005.2
20191015230112 6 90 16.1 25.7 0.10 0.46 0.46 68 1005.2
20191015230014 6 90 16.1 25.7 0.10 0.46 0.46 68 1005.2
20191015225912 6 90 16.1 25.7 0.10 0.46 0.46 68 1005.2
20191015225813 6 90 14.5 25.7 0.13 0.46 0.46 68 1005.1
20191015225712 6 89 14.5 24.1 0.13 0.46 0.46 68 1005.2
20191015225611 6 89 14.5 24.1 0.13 0.46 0.46 68 1005.2
20191015225512 6 87 14.5 24.1 0.13 0.46 0.46 68 1005.2
20191015225412 6 87 14.5 24.1 0.13 0.46 0.46 68 1005.2
20191015225312 6 88 16.1 24.1 0.15 0.46 0.46 68 1005.2
20191015225212 6 86 16.1 24.1 0.15 0.46 0.46 68 1005.2
20191015225112 6 87 16.1 24.1 0.15 0.46 0.46 68 1005.3